Time,TemperatureF,DewpointF,PressureIn,WindDirection,WindDirectionDegrees,WindSpeedMPH,WindSpeedGustMPH,Humidity,HourlyPrecipIn,Conditions,Clouds,dailyrainin,SoftwareType,DateUTC
2013-05-31 00:01:00,72.1,69.4,29.91,SE,135,0.0,0.0,91,0.00,,,0.00,WSDL version 423,2013-05-31 05:01:00,
2013-05-31 00:02:00,72.1,69.4,29.91,SE,127,0.0,0.0,91,0.00,,,0.00,WSDL version 423,2013-05-31 05:02:00,
2013-05-31 00:03:00,72.1,69.4,29.91,ESE,116,0.0,0.0,91,0.00,,,0.00,WSDL version 423,2013-05-31 05:03:00,
2013-05-31 00:07:00,72.1,69.4,29.91,ESE,104,0.0,0.0,91,0.00,,,0.00,WSDL version 423,2013-05-31 05:07:00,
2013-05-31 00:08:00,72.1,69.4,29.91,ESE,113,0.0,0.0,91,0.00,,,0.00,WSDL version 423,2013-05-31 05:08:00,
2013-05-31 00:09:00,72.1,69.4,29.91,East,90,0.0,0.0,91,0.00,,,0.00,WSDL version 423,2013-05-31 05:09:00,
2013-05-31 00:11:00,72.1,69.5,29.91,ENE,68,0.0,0.0,91,0.00,,,0.00,WSDL version 423,2013-05-31 05:11:00,
2013-05-31 00:13:00,72.2,69.6,29.91,East,90,0.0,0.0,91,0.00,,,0.00,WSDL version 423,2013-05-31 05:13:00,
2013-05-31 00:15:00,72.3,69.6,29.91,East,90,0.0,0.0,92,0.00,,,0.00,WSDL version 423,2013-05-31 05:15:00,
2013-05-31 00:16:00,72.3,69.7,29.88,East,93,0.0,0.0,92,0.00,,,0.00,WSDL version 423,2013-05-31 05:16:00,
2013-05-31 00:17:00,72.3,69.8,29.88,East,87,0.0,0.0,92,0.00,,,0.00,WSDL version 423,2013-05-31 05:17:00,
2013-05-31 00:18:00,72.3,69.9,29.88,East,98,0.0,0.0,92,0.00,,,0.00,WSDL version 423,2013-05-31 05:18:00,
2013-05-31 00:20:00,72.3,69.9,29.88,ESE,113,0.0,0.0,92,0.00,,,0.00,WSDL version 423,2013-05-31 05:20:00,
2013-05-31 00:23:00,72.3,69.9,29.88,ENE,68,0.0,0.0,92,0.00,,,0.00,WSDL version 423,2013-05-31 05:23:00,
2013-05-31 00:24:00,72.3,69.9,29.88,NE,55,0.0,0.0,92,0.00,,,0.00,WSDL version 423,2013-05-31 05:24:00,
2013-05-31 00:25:00,72.3,69.9,29.88,ENE,68,0.0,0.0,92,0.00,,,0.00,WSDL version 423,2013-05-31 05:25:00,
2013-05-31 00:28:00,72.4,70.0,29.88,East,95,0.0,0.0,92,0.00,,,0.00,WSDL version 423,2013-05-31 05:28:00,
2013-05-31 00:30:00,72.5,70.1,29.88,East,90,0.0,0.0,92,0.00,,,0.00,WSDL version 423,2013-05-31 05:30:00,
2013-05-31 00:31:00,72.5,70.1,29.88,East,90,0.0,0.0,92,0.00,,,0.00,WSDL version 423,2013-05-31 05:31:00,
2013-05-31 00:33:00,72.5,70.2,29.88,East,90,0.0,0.0,92,0.00,,,0.00,WSDL version 423,2013-05-31 05:33:00,
2013-05-31 00:37:00,72.7,70.3,29.88,East,101,0.0,0.0,92,0.00,,,0.00,WSDL version 423,2013-05-31 05:37:00,
2013-05-31 00:38:00,72.7,70.3,29.88,East,90,0.0,0.0,92,0.00,,,0.00,WSDL version 423,2013-05-31 05:38:00,
2013-05-31 00:39:00,72.7,70.3,29.88,East,87,0.0,0.0,92,0.00,,,0.00,WSDL version 423,2013-05-31 05:39:00,
2013-05-31 00:44:00,72.9,70.7,29.88,East,90,0.0,0.0,93,0.00,,,0.00,WSDL version 423,2013-05-31 05:44:00,
2013-05-31 00:45:00,72.9,70.8,29.88,East,90,0.0,0.0,93,0.00,,,0.00,WSDL version 423,2013-05-31 05:45:00,
2013-05-31 00:46:00,73.0,70.9,29.88,East,90,0.0,0.0,93,0.00,,,0.00,WSDL version 423,2013-05-31 05:46:00,
2013-05-31 00:49:00,73.1,71.1,29.88,ESE,113,0.0,0.0,93,0.00,,,0.00,WSDL version 423,2013-05-31 05:49:00,
2013-05-31 00:50:00,73.1,71.1,29.88,East,98,0.0,0.0,93,0.00,,,0.00,WSDL version 423,2013-05-31 05:50:00,
2013-05-31 00:53:00,73.2,71.2,29.88,East,85,0.0,0.0,93,0.00,,,0.00,WSDL version 423,2013-05-31 05:53:00,
2013-05-31 00:54:00,73.2,71.2,29.88,East,93,0.0,0.0,93,0.00,,,0.00,WSDL version 423,2013-05-31 05:54:00,
2013-05-31 00:56:00,73.3,71.2,29.88,ESE,110,0.0,0.0,93,0.00,,,0.00,WSDL version 423,2013-05-31 05:56:00,
2013-05-31 00:58:00,73.4,71.2,29.88,SE,124,0.0,0.0,92,0.00,,,0.00,WSDL version 423,2013-05-31 05:58:00,
2013-05-31 01:00:00,73.4,71.1,29.88,East,96,0.0,0.0,92,0.00,,,0.00,WSDL version 423,2013-05-31 06:00:00,
2013-05-31 01:01:00,73.5,71.1,29.88,East,90,0.0,0.0,92,0.00,,,0.00,WSDL version 423,2013-05-31 06:01:00,
2013-05-31 01:02:00,73.5,71.1,29.88,East,96,0.0,0.0,92,0.00,,,0.00,WSDL version 423,2013-05-31 06:02:00,
2013-05-31 01:05:00,73.6,71.2,29.88,East,90,0.0,0.0,92,0.00,,,0.00,WSDL version 423,2013-05-31 06:05:00,
2013-05-31 01:06:00,73.7,71.3,29.88,East,90,0.0,0.0,92,0.00,,,0.00,WSDL version 423,2013-05-31 06:06:00,
2013-05-31 01:08:00,73.7,71.3,29.88,East,96,0.0,0.0,92,0.00,,,0.00,WSDL version 423,2013-05-31 06:08:00,
2013-05-31 01:10:00,73.8,71.3,29.88,East,87,0.0,0.0,91,0.00,,,0.00,WSDL version 423,2013-05-31 06:10:00,
2013-05-31 01:11:00,73.8,71.2,29.88,ESE,103,0.0,0.0,91,0.00,,,0.00,WSDL version 423,2013-05-31 06:11:00,
2013-05-31 01:12:00,73.9,71.2,29.88,ESE,107,0.0,0.0,91,0.00,,,0.00,WSDL version 423,2013-05-31 06:12:00,
2013-05-31 01:15:00,73.9,71.1,29.88,East,93,0.0,0.0,90,0.00,,,0.00,WSDL version 423,2013-05-31 06:15:00,
2013-05-31 01:16:00,73.9,71.0,29.85,East,87,0.0,0.0,90,0.00,,,0.00,WSDL version 423,2013-05-31 06:16:00,
2013-05-31 01:17:00,73.9,70.9,29.85,East,90,0.0,0.0,90,0.00,,,0.00,WSDL version 423,2013-05-31 06:17:00,
2013-05-31 01:21:00,73.9,70.7,29.85,ESE,113,0.0,0.0,89,0.00,,,0.00,WSDL version 423,2013-05-31 06:21:00,
2013-05-31 01:23:00,73.9,70.6,29.85,East,100,0.0,0.0,89,0.00,,,0.00,WSDL version 423,2013-05-31 06:23:00,
2013-05-31 01:25:00,73.9,70.4,29.85,ESE,115,0.0,0.0,89,0.00,,,0.00,WSDL version 423,2013-05-31 06:25:00,
2013-05-31 01:26:00,73.9,70.4,29.85,SE,127,0.0,0.0,89,0.00,,,0.00,WSDL version 423,2013-05-31 06:26:00,
2013-05-31 01:28:00,73.9,70.4,29.85,ESE,113,0.0,0.0,89,0.00,,,0.00,WSDL version 423,2013-05-31 06:28:00,
2013-05-31 01:29:00,73.9,70.4,29.85,East,95,0.0,0.0,88,0.00,,,0.00,WSDL version 423,2013-05-31 06:29:00,
2013-05-31 01:33:00,73.9,70.1,29.85,East,90,0.0,0.0,88,0.00,,,0.00,WSDL version 423,2013-05-31 06:33:00,
2013-05-31 01:34:00,73.9,70.1,29.85,ENE,77,0.0,0.0,88,0.00,,,0.00,WSDL version 423,2013-05-31 06:34:00,
2013-05-31 01:35:00,73.9,70.1,29.85,SSE,160,0.0,0.0,88,0.00,,,0.00,WSDL version 423,2013-05-31 06:35:00,
2013-05-31 01:37:00,73.9,70.1,29.85,South,177,0.0,0.0,88,0.00,,,0.00,WSDL version 423,2013-05-31 06:37:00,
2013-05-31 01:38:00,73.9,70.1,29.85,SE,138,0.0,0.0,88,0.00,,,0.00,WSDL version 423,2013-05-31 06:38:00,
2013-05-31 01:39:00,73.9,70.1,29.85,ESE,110,0.0,0.0,88,0.00,,,0.00,WSDL version 423,2013-05-31 06:39:00,
2013-05-31 01:42:00,74.0,70.0,29.85,ENE,73,0.0,0.0,87,0.00,,,0.00,WSDL version 423,2013-05-31 06:42:00,
2013-05-31 01:43:00,74.0,70.0,29.85,East,88,0.0,0.0,87,0.00,,,0.00,WSDL version 423,2013-05-31 06:43:00,
2013-05-31 01:44:00,74.0,69.9,29.85,ESE,107,0.0,0.0,87,0.00,,,0.00,WSDL version 423,2013-05-31 06:44:00,
2013-05-31 01:46:00,74.1,69.9,29.85,SSE,158,0.0,0.0,87,0.00,,,0.00,WSDL version 423,2013-05-31 06:46:00,
2013-05-31 01:47:00,74.1,69.9,29.85,South,183,0.0,0.0,87,0.00,,,0.00,WSDL version 423,2013-05-31 06:47:00,
2013-05-31 01:48:00,74.1,69.9,29.85,South,180,0.0,0.0,87,0.00,,,0.00,WSDL version 423,2013-05-31 06:48:00,
2013-05-31 01:51:00,74.2,69.8,29.85,NE,42,0.0,0.0,86,0.00,,,0.00,WSDL version 423,2013-05-31 06:51:00,
2013-05-31 01:52:00,74.2,69.8,29.85,South,191,0.0,0.0,86,0.00,,,0.00,WSDL version 423,2013-05-31 06:52:00,
2013-05-31 01:55:00,74.3,69.7,29.85,East,101,0.0,0.0,86,0.00,,,0.00,WSDL version 423,2013-05-31 06:55:00,
2013-05-31 01:56:00,74.3,69.7,29.85,ESE,113,0.0,0.0,86,0.00,,,0.00,WSDL version 423,2013-05-31 06:56:00,
2013-05-31 01:57:00,74.3,69.7,29.85,ESE,113,0.0,0.0,86,0.00,,,0.00,WSDL version 423,2013-05-31 06:57:00,
2013-05-31 01:59:00,74.3,69.6,29.85,East,98,0.0,0.0,84,0.00,,,0.00,WSDL version 423,2013-05-31 06:59:00,
2013-05-31 02:00:00,74.3,69.5,29.85,East,90,0.0,0.0,84,0.00,,,0.00,WSDL version 423,2013-05-31 07:00:00,
2013-05-31 02:01:00,74.4,69.5,29.85,East,90,0.0,0.0,84,0.00,,,0.00,WSDL version 423,2013-05-31 07:01:00,
2013-05-31 02:04:00,74.5,69.5,29.85,ESE,105,0.0,0.0,84,0.00,,,0.00,WSDL version 423,2013-05-31 07:04:00,
2013-05-31 02:05:00,74.5,69.5,29.85,ESE,110,0.0,0.0,84,0.00,,,0.00,WSDL version 423,2013-05-31 07:05:00,
2013-05-31 02:06:00,74.5,69.5,29.85,East,93,0.0,0.0,84,0.00,,,0.00,WSDL version 423,2013-05-31 07:06:00,
2013-05-31 02:09:00,74.5,69.3,29.85,East,84,0.0,0.0,83,0.00,,,0.00,WSDL version 423,2013-05-31 07:09:00,
2013-05-31 02:11:00,74.5,69.2,29.85,East,95,0.0,0.0,83,0.00,,,0.00,WSDL version 423,2013-05-31 07:11:00,
2013-05-31 02:12:00,74.5,69.1,29.85,East,87,0.0,0.0,83,0.00,,,0.00,WSDL version 423,2013-05-31 07:12:00,
2013-05-31 02:16:00,74.5,69.1,29.88,NE,34,0.0,0.0,83,0.00,,,0.00,WSDL version 423,2013-05-31 07:16:00,
2013-05-31 02:17:00,74.5,69.1,29.88,NNE,25,0.0,0.0,83,0.00,,,0.00,WSDL version 423,2013-05-31 07:17:00,
2013-05-31 02:21:00,74.5,69.1,29.88,East,98,0.0,0.0,83,0.00,,,0.00,WSDL version 423,2013-05-31 07:21:00,
2013-05-31 02:22:00,74.5,69.1,29.88,ESE,113,0.0,0.0,83,0.00,,,0.00,WSDL version 423,2013-05-31 07:22:00,
2013-05-31 02:23:00,74.5,69.0,29.88,SE,141,0.0,0.0,82,0.00,,,0.00,WSDL version 423,2013-05-31 07:23:00,
2013-05-31 02:24:00,74.5,68.9,29.88,South,170,0.0,0.0,82,0.00,,,0.00,WSDL version 423,2013-05-31 07:24:00,
2013-05-31 02:27:00,74.5,68.7,29.88,ESE,118,0.0,0.0,82,0.00,,,0.00,WSDL version 423,2013-05-31 07:27:00,
2013-05-31 02:29:00,74.5,68.7,29.88,ESE,118,0.0,0.0,82,0.00,,,0.00,WSDL version 423,2013-05-31 07:29:00,
2013-05-31 02:30:00,74.5,68.7,29.88,East,96,0.0,0.0,82,0.00,,,0.00,WSDL version 423,2013-05-31 07:30:00,
2013-05-31 02:31:00,74.5,68.7,29.88,East,90,0.0,0.0,82,0.00,,,0.00,WSDL version 423,2013-05-31 07:31:00,
2013-05-31 02:33:00,74.5,68.7,29.88,ESE,113,0.0,0.0,82,0.00,,,0.00,WSDL version 423,2013-05-31 07:33:00,
2013-05-31 02:35:00,74.5,68.7,29.88,ESE,122,0.0,0.0,82,0.00,,,0.00,WSDL version 423,2013-05-31 07:35:00,
2013-05-31 02:36:00,74.5,68.7,29.88,ENE,71,0.0,0.0,82,0.00,,,0.00,WSDL version 423,2013-05-31 07:36:00,
2013-05-31 02:38:00,74.5,68.7,29.88,East,80,0.0,0.0,82,0.00,,,0.00,WSDL version 423,2013-05-31 07:38:00,
2013-05-31 02:40:00,74.5,68.7,29.88,ESE,104,0.0,0.0,82,0.00,,,0.00,WSDL version 423,2013-05-31 07:40:00,
2013-05-31 02:42:00,74.5,68.7,29.88,East,98,0.0,0.0,82,0.00,,,0.00,WSDL version 423,2013-05-31 07:42:00,
2013-05-31 02:43:00,74.5,68.7,29.88,East,90,0.0,0.0,82,0.00,,,0.00,WSDL version 423,2013-05-31 07:43:00,
2013-05-31 02:47:00,74.5,68.7,29.85,SE,138,0.0,0.0,82,0.00,,,0.00,WSDL version 423,2013-05-31 07:47:00,
2013-05-31 02:49:00,74.6,68.8,29.85,ESE,106,0.0,0.0,82,0.00,,,0.00,WSDL version 423,2013-05-31 07:49:00,
2013-05-31 02:51:00,74.6,68.9,29.85,ESE,106,0.0,0.0,82,0.00,,,0.00,WSDL version 423,2013-05-31 07:51:00,
2013-05-31 02:54:00,74.6,68.7,29.85,East,93,0.0,0.0,81,0.00,,,0.00,WSDL version 423,2013-05-31 07:54:00,
2013-05-31 02:55:00,74.6,68.6,29.85,East,90,0.0,0.0,81,0.00,,,0.00,WSDL version 423,2013-05-31 07:55:00,
2013-05-31 02:58:00,74.6,68.5,29.85,SSE,158,0.0,0.0,81,0.00,,,0.00,WSDL version 423,2013-05-31 07:58:00,
2013-05-31 03:02:00,74.6,68.5,29.88,SSE,150,0.0,0.0,81,0.00,,,0.00,WSDL version 423,2013-05-31 08:02:00,
2013-05-31 03:03:00,74.6,68.5,29.88,SSE,150,0.0,0.0,81,0.00,,,0.00,WSDL version 423,2013-05-31 08:03:00,
2013-05-31 03:04:00,74.6,68.5,29.88,ESE,113,0.0,0.0,81,0.00,,,0.00,WSDL version 423,2013-05-31 08:04:00,
2013-05-31 03:05:00,74.6,68.5,29.88,SE,141,0.0,0.0,81,0.00,,,0.00,WSDL version 423,2013-05-31 08:05:00,
2013-05-31 03:06:00,74.6,68.5,29.88,South,170,0.0,0.0,81,0.00,,,0.00,WSDL version 423,2013-05-31 08:06:00,
2013-05-31 03:09:00,74.6,68.5,29.88,SE,128,0.0,0.0,81,0.00,,,0.00,WSDL version 423,2013-05-31 08:09:00,
2013-05-31 03:11:00,74.6,68.5,29.88,SSE,158,0.0,0.0,81,0.00,,,0.00,WSDL version 423,2013-05-31 08:11:00,
2013-05-31 03:12:00,74.6,68.5,29.88,SSE,149,0.0,0.0,81,0.00,,,0.00,WSDL version 423,2013-05-31 08:12:00,
2013-05-31 03:14:00,74.6,68.4,29.88,SSE,161,0.0,0.0,81,0.00,,,0.00,WSDL version 423,2013-05-31 08:14:00,
2013-05-31 03:16:00,74.5,68.3,29.88,SSW,195,0.0,0.0,81,0.00,,,0.00,WSDL version 423,2013-05-31 08:16:00,
2013-05-31 03:20:00,74.5,68.3,29.88,SSW,197,0.0,0.0,81,0.00,,,0.00,WSDL version 423,2013-05-31 08:20:00,
2013-05-31 03:25:00,74.5,68.3,29.88,SSW,206,0.0,0.0,81,0.00,,,0.00,WSDL version 423,2013-05-31 08:25:00,
2013-05-31 03:26:00,74.5,68.3,29.88,SSW,196,0.0,0.0,81,0.00,,,0.00,WSDL version 423,2013-05-31 08:26:00,
2013-05-31 03:27:00,74.5,68.3,29.88,South,183,0.0,0.0,81,0.00,,,0.00,WSDL version 423,2013-05-31 08:27:00,
2013-05-31 03:29:00,74.5,68.3,29.88,SSW,199,0.0,0.0,81,0.00,,,0.00,WSDL version 423,2013-05-31 08:29:00,
2013-05-31 03:30:00,74.5,68.3,29.88,South,186,0.0,0.0,81,0.00,,,0.00,WSDL version 423,2013-05-31 08:30:00,
2013-05-31 03:31:00,74.5,68.3,29.88,South,177,0.0,0.0,81,0.00,,,0.00,WSDL version 423,2013-05-31 08:31:00,
2013-05-31 03:32:00,74.4,68.3,29.88,SSW,203,0.0,0.0,81,0.00,,,0.00,WSDL version 423,2013-05-31 08:32:00,
2013-05-31 03:34:00,74.4,68.2,29.88,SSW,203,0.0,0.0,81,0.00,,,0.00,WSDL version 423,2013-05-31 08:34:00,
2013-05-31 03:35:00,74.3,68.2,29.88,SSW,203,0.0,0.0,81,0.00,,,0.00,WSDL version 423,2013-05-31 08:35:00,
2013-05-31 03:37:00,74.2,68.1,29.88,SSW,193,0.0,0.0,81,0.00,,,0.00,WSDL version 423,2013-05-31 08:37:00,
2013-05-31 03:39:00,74.1,68.0,29.88,South,180,0.0,0.0,81,0.00,,,0.00,WSDL version 423,2013-05-31 08:39:00,
2013-05-31 03:42:00,74.1,68.0,29.88,SSW,198,0.0,0.0,82,0.00,,,0.00,WSDL version 423,2013-05-31 08:42:00,
2013-05-31 03:43:00,74.1,68.1,29.88,South,188,0.0,0.0,82,0.00,,,0.00,WSDL version 423,2013-05-31 08:43:00,
2013-05-31 03:44:00,74.1,68.1,29.88,South,180,0.0,0.0,82,0.00,,,0.00,WSDL version 423,2013-05-31 08:44:00,
2013-05-31 03:45:00,74.1,68.2,29.88,South,180,0.0,0.0,82,0.00,,,0.00,WSDL version 423,2013-05-31 08:45:00,
2013-05-31 03:47:00,74.0,68.2,29.88,SSE,158,0.0,0.0,82,0.00,,,0.00,WSDL version 423,2013-05-31 08:47:00,
2013-05-31 03:48:00,74.0,68.2,29.88,South,169,0.0,0.0,82,0.00,,,0.00,WSDL version 423,2013-05-31 08:48:00,
2013-05-31 03:49:00,73.9,68.2,29.88,South,180,0.0,0.0,82,0.00,,,0.00,WSDL version 423,2013-05-31 08:49:00,
2013-05-31 03:52:00,73.9,68.4,29.88,SE,143,0.0,0.0,83,0.00,,,0.00,WSDL version 423,2013-05-31 08:52:00,
2013-05-31 03:53:00,73.9,68.5,29.88,South,186,0.0,0.0,83,0.00,,,0.00,WSDL version 423,2013-05-31 08:53:00,
2013-05-31 03:54:00,73.9,68.5,29.88,SW,231,0.0,0.0,83,0.00,,,0.00,WSDL version 423,2013-05-31 08:54:00,
2013-05-31 03:57:00,73.9,68.6,29.88,SSE,167,0.0,0.0,83,0.00,,,0.00,WSDL version 423,2013-05-31 08:57:00,
2013-05-31 03:58:00,73.9,68.6,29.88,West,270,0.0,0.0,84,0.00,,,0.00,WSDL version 423,2013-05-31 08:58:00,
2013-05-31 03:59:00,73.9,68.7,29.88,NNE,23,0.0,0.0,84,0.00,,,0.00,WSDL version 423,2013-05-31 08:59:00,
2013-05-31 04:00:00,73.9,68.7,29.88,SE,135,0.0,0.0,84,0.00,,,0.00,WSDL version 423,2013-05-31 09:00:00,
2013-05-31 04:03:00,73.9,68.9,29.85,ESE,110,0.0,0.0,84,0.00,,,0.00,WSDL version 423,2013-05-31 09:03:00,
2013-05-31 04:05:00,74.0,69.0,29.85,SSE,158,0.0,0.0,84,0.00,,,0.00,WSDL version 423,2013-05-31 09:05:00,
2013-05-31 04:06:00,74.0,69.1,29.85,SSE,155,0.0,0.0,86,0.00,,,0.00,WSDL version 423,2013-05-31 09:06:00,
2013-05-31 04:07:00,74.0,69.1,29.85,SE,128,0.0,0.0,84,0.00,,,0.00,WSDL version 423,2013-05-31 09:07:00,
2013-05-31 04:12:00,74.2,69.4,29.85,SE,146,0.0,0.0,84,0.00,,,0.00,WSDL version 423,2013-05-31 09:12:00,
2013-05-31 04:13:00,74.3,69.4,29.85,SE,135,0.0,0.0,84,0.00,,,0.00,WSDL version 423,2013-05-31 09:13:00,
2013-05-31 04:14:00,74.3,69.4,29.85,ESE,116,0.0,0.0,84,0.00,,,0.00,WSDL version 423,2013-05-31 09:14:00,
2013-05-31 04:16:00,74.3,69.3,29.88,SE,146,0.0,0.0,84,0.00,,,0.00,WSDL version 423,2013-05-31 09:16:00,
2013-05-31 04:19:00,74.3,69.3,29.88,South,172,0.0,0.0,84,0.00,,,0.00,WSDL version 423,2013-05-31 09:19:00,
2013-05-31 04:20:00,74.3,69.3,29.88,SSE,160,0.0,0.0,84,0.00,,,0.00,WSDL version 423,2013-05-31 09:20:00,
2013-05-31 04:24:00,74.3,69.3,29.88,SE,138,0.0,0.0,84,0.00,,,0.00,WSDL version 423,2013-05-31 09:24:00,
2013-05-31 04:25:00,74.3,69.3,29.88,SE,128,0.0,0.0,84,0.00,,,0.00,WSDL version 423,2013-05-31 09:25:00,
2013-05-31 04:26:00,74.3,69.2,29.88,SE,141,0.0,0.0,83,0.00,,,0.00,WSDL version 423,2013-05-31 09:26:00,
2013-05-31 04:27:00,74.3,69.1,29.88,SSE,155,0.0,0.0,83,0.00,,,0.00,WSDL version 423,2013-05-31 09:27:00,
2013-05-31 04:28:00,74.3,69.1,29.88,SSE,155,0.0,0.0,83,0.00,,,0.00,WSDL version 423,2013-05-31 09:28:00,
2013-05-31 04:29:00,74.3,69.0,29.88,SSE,149,0.0,0.0,83,0.00,,,0.00,WSDL version 423,2013-05-31 09:29:00,
2013-05-31 04:33:00,74.5,69.0,29.85,SSE,160,0.0,0.0,82,0.00,,,0.00,WSDL version 423,2013-05-31 09:33:00,
2013-05-31 04:35:00,74.5,68.8,29.85,SE,124,0.0,0.0,82,0.00,,,0.00,WSDL version 423,2013-05-31 09:35:00,
2013-05-31 04:37:00,74.5,68.7,29.85,South,177,0.0,0.0,82,0.00,,,0.00,WSDL version 423,2013-05-31 09:37:00,
2013-05-31 04:38:00,74.5,68.7,29.85,SSE,163,0.0,0.0,82,0.00,,,0.00,WSDL version 423,2013-05-31 09:38:00,
2013-05-31 04:39:00,74.5,68.7,29.85,SSE,151,0.0,0.0,82,0.00,,,0.00,WSDL version 423,2013-05-31 09:39:00,
2013-05-31 04:42:00,74.5,68.7,29.85,SSE,163,0.0,0.0,82,0.00,,,0.00,WSDL version 423,2013-05-31 09:42:00,
2013-05-31 04:43:00,74.5,68.6,29.85,South,170,0.0,0.0,81,0.00,,,0.00,WSDL version 423,2013-05-31 09:43:00,
2013-05-31 04:44:00,74.5,68.5,29.85,South,180,0.0,0.0,81,0.00,,,0.00,WSDL version 423,2013-05-31 09:44:00,
2013-05-31 04:45:00,74.5,68.4,29.85,South,185,0.0,0.0,81,0.00,,,0.00,WSDL version 423,2013-05-31 09:45:00,
2013-05-31 04:48:00,74.5,68.3,29.88,South,185,0.0,0.0,81,0.00,,,0.00,WSDL version 423,2013-05-31 09:48:00,
2013-05-31 04:49:00,74.5,68.3,29.88,SW,222,0.0,0.0,81,0.00,,,0.00,WSDL version 423,2013-05-31 09:49:00,
2013-05-31 04:50:00,74.5,68.3,29.88,West,270,0.0,0.0,81,0.00,,,0.00,WSDL version 423,2013-05-31 09:50:00,
2013-05-31 04:53:00,74.6,68.4,29.88,SSE,158,0.0,0.0,81,0.00,,,0.00,WSDL version 423,2013-05-31 09:53:00,
2013-05-31 04:54:00,74.6,68.4,29.88,South,186,0.0,0.0,81,0.00,,,0.00,WSDL version 423,2013-05-31 09:54:00,
2013-05-31 04:55:00,74.6,68.5,29.88,South,177,0.0,0.0,81,0.00,,,0.00,WSDL version 423,2013-05-31 09:55:00,
2013-05-31 04:56:00,74.6,68.5,29.88,SSE,164,0.0,0.0,81,0.00,,,0.00,WSDL version 423,2013-05-31 09:56:00,
2013-05-31 04:59:00,74.6,68.5,29.88,South,170,0.0,0.0,81,0.00,,,0.00,WSDL version 423,2013-05-31 09:59:00,
2013-05-31 05:01:00,74.6,68.5,29.88,South,188,0.0,0.0,81,0.00,,,0.00,WSDL version 423,2013-05-31 10:01:00,
2013-05-31 05:02:00,74.6,68.5,29.88,SSW,205,0.0,0.0,81,0.00,,,0.00,WSDL version 423,2013-05-31 10:02:00,
2013-05-31 05:04:00,74.6,68.5,29.88,SSE,154,0.0,0.0,81,0.00,,,0.00,WSDL version 423,2013-05-31 10:04:00,
2013-05-31 05:05:00,74.6,68.5,29.88,South,175,0.0,0.0,81,0.00,,,0.00,WSDL version 423,2013-05-31 10:05:00,
2013-05-31 05:06:00,74.6,68.5,29.88,South,173,0.0,0.0,81,0.00,,,0.00,WSDL version 423,2013-05-31 10:06:00,
2013-05-31 05:09:00,74.6,68.5,29.88,SSE,163,0.0,0.0,81,0.00,,,0.00,WSDL version 423,2013-05-31 10:09:00,
2013-05-31 05:10:00,74.6,68.5,29.88,South,174,0.0,0.0,81,0.00,,,0.00,WSDL version 423,2013-05-31 10:10:00,
2013-05-31 05:11:00,74.6,68.5,29.88,South,188,0.0,0.0,81,0.00,,,0.00,WSDL version 423,2013-05-31 10:11:00,
2013-05-31 05:14:00,74.6,68.5,29.88,SSE,164,0.0,0.0,81,0.00,,,0.00,WSDL version 423,2013-05-31 10:14:00,
2013-05-31 05:16:00,74.6,68.5,29.91,South,186,0.0,0.0,81,0.00,,,0.00,WSDL version 423,2013-05-31 10:16:00,
2013-05-31 05:17:00,74.6,68.5,29.91,SSE,164,0.0,0.0,81,0.00,,,0.00,WSDL version 423,2013-05-31 10:17:00,
2013-05-31 05:20:00,74.6,68.5,29.91,SSW,194,0.0,0.0,81,0.00,,,0.00,WSDL version 423,2013-05-31 10:20:00,
2013-05-31 05:22:00,74.6,68.6,29.91,SSE,158,0.0,0.0,82,0.00,,,0.00,WSDL version 423,2013-05-31 10:22:00,
2013-05-31 05:25:00,74.6,68.8,29.91,South,177,0.0,0.0,82,0.00,,,0.00,WSDL version 423,2013-05-31 10:25:00,
2013-05-31 05:26:00,74.6,68.9,29.91,SSE,152,0.0,0.0,82,0.00,,,0.00,WSDL version 423,2013-05-31 10:26:00,
2013-05-31 05:27:00,74.6,68.9,29.91,South,180,0.0,0.0,82,0.00,,,0.00,WSDL version 423,2013-05-31 10:27:00,
2013-05-31 05:30:00,74.6,68.9,29.91,SSE,150,0.0,0.0,82,0.00,,,0.00,WSDL version 423,2013-05-31 10:30:00,
2013-05-31 05:31:00,74.6,68.9,29.91,SE,141,0.0,0.0,82,0.00,,,0.00,WSDL version 423,2013-05-31 10:31:00,
2013-05-31 05:33:00,74.6,68.9,29.91,South,177,0.0,0.0,82,0.00,,,0.00,WSDL version 423,2013-05-31 10:33:00,
2013-05-31 05:35:00,74.6,68.9,29.91,South,177,0.0,0.0,82,0.00,,,0.00,WSDL version 423,2013-05-31 10:35:00,
2013-05-31 05:36:00,74.6,68.9,29.91,SSW,194,0.0,0.0,82,0.00,,,0.00,WSDL version 423,2013-05-31 10:36:00,
2013-05-31 05:39:00,74.6,68.9,29.91,SE,132,0.0,0.0,82,0.00,,,0.00,WSDL version 423,2013-05-31 10:39:00,
2013-05-31 05:40:00,74.6,68.9,29.91,SSE,155,0.0,0.0,82,0.00,,,0.00,WSDL version 423,2013-05-31 10:40:00,
2013-05-31 05:41:00,74.6,68.9,29.91,South,173,0.0,0.0,82,0.00,,,0.00,WSDL version 423,2013-05-31 10:41:00,
2013-05-31 05:43:00,74.6,68.9,29.91,South,173,0.0,0.0,82,0.00,,,0.00,WSDL version 423,2013-05-31 10:43:00,
2013-05-31 05:45:00,74.7,69.0,29.91,SSW,205,0.0,0.0,82,0.00,,,0.00,WSDL version 423,2013-05-31 10:45:00,
2013-05-31 05:46:00,74.8,69.0,29.91,SSE,166,0.0,0.0,82,0.00,,,0.00,WSDL version 423,2013-05-31 10:46:00,
2013-05-31 05:48:00,74.8,68.9,29.91,South,183,0.0,0.0,81,0.00,,,0.00,WSDL version 423,2013-05-31 10:48:00,
2013-05-31 05:49:00,74.8,68.8,29.91,SSW,200,0.0,0.0,81,0.00,,,0.00,WSDL version 423,2013-05-31 10:49:00,
2013-05-31 05:50:00,74.8,68.7,29.91,SSW,200,0.0,0.0,81,0.00,,,0.00,WSDL version 423,2013-05-31 10:50:00,
2013-05-31 05:53:00,74.8,68.6,29.91,SSW,209,0.0,0.0,81,0.00,,,0.00,WSDL version 423,2013-05-31 10:53:00,
2013-05-31 05:55:00,74.8,68.6,29.91,ENE,70,0.0,0.0,81,0.00,,,0.00,WSDL version 423,2013-05-31 10:55:00,
2013-05-31 05:56:00,74.8,68.6,29.91,South,188,0.0,0.0,81,0.00,,,0.00,WSDL version 423,2013-05-31 10:56:00,
2013-05-31 05:59:00,74.8,68.4,29.91,SSW,208,0.0,0.0,80,0.00,,,0.00,WSDL version 423,2013-05-31 10:59:00,
2013-05-31 06:01:00,74.8,68.2,29.91,South,183,0.0,0.0,80,0.00,,,0.00,WSDL version 423,2013-05-31 11:01:00,
2013-05-31 06:02:00,74.8,68.2,29.91,SSW,197,0.0,0.0,80,0.00,,,0.00,WSDL version 423,2013-05-31 11:02:00,
2013-05-31 06:05:00,74.8,68.3,29.91,SSW,196,0.0,0.0,81,0.00,,,0.00,WSDL version 423,2013-05-31 11:05:00,
2013-05-31 06:06:00,74.8,68.4,29.91,South,173,0.0,0.0,81,0.00,,,0.00,WSDL version 423,2013-05-31 11:06:00,
2013-05-31 06:10:00,74.8,68.5,29.91,South,174,0.0,0.0,81,0.00,,,0.00,WSDL version 423,2013-05-31 11:10:00,
2013-05-31 06:11:00,74.8,68.5,29.91,South,170,0.0,0.0,81,0.00,,,0.00,WSDL version 423,2013-05-31 11:11:00,
2013-05-31 06:12:00,74.7,68.4,29.91,South,188,0.0,0.0,81,0.00,,,0.00,WSDL version 423,2013-05-31 11:12:00,
2013-05-31 06:13:00,74.7,68.4,29.91,SW,217,0.0,0.0,81,0.00,,,0.00,WSDL version 423,2013-05-31 11:13:00,
2013-05-31 06:15:00,74.6,68.3,29.91,SSW,208,0.0,0.0,81,0.00,,,0.00,WSDL version 423,2013-05-31 11:15:00,
2013-05-31 06:16:00,74.6,68.3,29.91,SSE,165,0.0,0.0,81,0.00,,,0.00,WSDL version 423,2013-05-31 11:16:00,
2013-05-31 06:21:00,74.5,68.2,29.91,SSW,197,0.0,0.0,81,0.00,,,0.00,WSDL version 423,2013-05-31 11:21:00,
2013-05-31 06:22:00,74.5,68.1,29.91,South,180,0.0,0.0,80,0.00,,,0.00,WSDL version 423,2013-05-31 11:22:00,
2013-05-31 06:23:00,74.4,68.0,29.91,South,175,0.0,0.0,80,0.00,,,0.00,WSDL version 423,2013-05-31 11:23:00,
2013-05-31 06:27:00,74.3,67.7,29.91,South,186,0.0,0.0,80,0.00,,,0.00,WSDL version 423,2013-05-31 11:27:00,
2013-05-31 06:28:00,74.2,67.7,29.91,South,188,0.0,0.0,80,0.00,,,0.00,WSDL version 423,2013-05-31 11:28:00,
2013-05-31 06:31:00,74.0,67.7,29.91,SSE,148,0.0,0.0,81,0.00,,,0.00,WSDL version 423,2013-05-31 11:31:00,
2013-05-31 06:32:00,73.9,67.7,29.91,South,173,0.0,0.0,82,0.00,,,0.00,WSDL version 423,2013-05-31 11:32:00,
2013-05-31 06:35:00,73.6,67.9,29.91,SSE,152,0.0,0.0,83,0.00,,,0.00,WSDL version 423,2013-05-31 11:35:00,
2013-05-31 06:37:00,73.5,68.1,29.91,SSE,161,0.0,0.0,84,0.00,,,0.00,WSDL version 423,2013-05-31 11:37:00,
2013-05-31 06:40:00,73.4,68.3,29.91,South,186,0.0,0.0,84,0.00,,,0.00,WSDL version 423,2013-05-31 11:40:00,
2013-05-31 06:42:00,73.3,68.4,29.91,SSW,198,0.0,0.0,86,0.00,,,0.00,WSDL version 423,2013-05-31 11:42:00,
2013-05-31 06:43:00,73.2,68.4,29.91,ESE,108,0.0,0.0,86,0.00,,,0.00,WSDL version 423,2013-05-31 11:43:00,
2013-05-31 06:44:00,73.2,68.6,29.91,SSE,161,0.0,0.0,87,0.00,,,0.00,WSDL version 423,2013-05-31 11:44:00,
2013-05-31 06:48:00,73.1,69.1,29.91,South,180,0.0,0.0,87,0.00,,,0.00,WSDL version 423,2013-05-31 11:48:00,
2013-05-31 06:49:00,73.1,69.0,29.91,South,180,0.0,0.0,87,0.00,,,0.00,WSDL version 423,2013-05-31 11:49:00,
2013-05-31 06:50:00,73.1,69.0,29.91,South,191,0.0,0.0,87,0.00,,,0.00,WSDL version 423,2013-05-31 11:50:00,
2013-05-31 06:51:00,73.0,68.9,29.91,SW,214,0.0,0.0,87,0.00,,,0.00,WSDL version 423,2013-05-31 11:51:00,
2013-05-31 06:52:00,73.0,68.9,29.91,SW,214,0.0,0.0,88,0.00,,,0.00,WSDL version 423,2013-05-31 11:52:00,
2013-05-31 06:53:00,73.0,69.0,29.91,SSW,203,0.0,0.0,88,0.00,,,0.00,WSDL version 423,2013-05-31 11:53:00,
2013-05-31 06:54:00,73.0,69.1,29.91,South,180,0.0,0.0,88,0.00,,,0.00,WSDL version 423,2013-05-31 11:54:00,
2013-05-31 06:55:00,73.0,69.1,29.91,South,180,0.0,0.0,88,0.00,,,0.00,WSDL version 423,2013-05-31 11:55:00,
2013-05-31 06:58:00,73.0,69.2,29.91,SSW,195,0.0,0.0,88,0.00,,,0.00,WSDL version 423,2013-05-31 11:58:00,
2013-05-31 06:59:00,73.0,69.2,29.91,South,169,0.0,0.0,88,0.00,,,0.00,WSDL version 423,2013-05-31 11:59:00,
2013-05-31 07:00:00,73.0,69.2,29.91,SE,135,0.0,0.0,88,0.00,,,0.00,WSDL version 423,2013-05-31 12:00:00,
2013-05-31 07:02:00,72.9,69.2,29.91,West,270,0.0,0.0,89,0.00,,,0.00,WSDL version 423,2013-05-31 12:02:00,
2013-05-31 07:04:00,72.9,69.3,29.91,South,184,0.0,0.0,89,0.00,,,0.00,WSDL version 423,2013-05-31 12:04:00,
2013-05-31 07:06:00,72.9,69.5,29.91,South,176,0.0,0.0,90,0.00,,,0.00,WSDL version 423,2013-05-31 12:06:00,
2013-05-31 07:09:00,72.8,69.7,29.91,SSW,203,0.0,0.0,90,0.00,,,0.00,WSDL version 423,2013-05-31 12:09:00,
2013-05-31 07:10:00,72.9,69.8,29.91,SSW,203,0.0,0.0,90,0.00,,,0.00,WSDL version 423,2013-05-31 12:10:00,
2013-05-31 07:11:00,72.9,69.8,29.91,SSW,195,0.0,0.0,90,0.00,,,0.00,WSDL version 423,2013-05-31 12:11:00,
2013-05-31 07:12:00,72.9,69.8,29.91,South,188,0.0,0.0,90,0.00,,,0.00,WSDL version 423,2013-05-31 12:12:00,
2013-05-31 07:15:00,72.9,69.9,29.91,South,180,0.0,0.0,91,0.00,,,0.00,WSDL version 423,2013-05-31 12:15:00,
2013-05-31 07:16:00,73.0,70.0,29.91,South,180,0.0,0.0,91,0.00,,,0.00,WSDL version 423,2013-05-31 12:16:00,
2013-05-31 07:17:00,73.0,70.1,29.91,South,180,0.0,0.0,91,0.00,,,0.00,WSDL version 423,2013-05-31 12:17:00,
2013-05-31 07:19:00,73.0,70.3,29.91,South,185,0.0,0.0,91,0.00,,,0.00,WSDL version 423,2013-05-31 12:19:00,
2013-05-31 07:22:00,73.0,70.3,29.91,SSW,198,0.0,0.0,91,0.00,,,0.00,WSDL version 423,2013-05-31 12:22:00,
2013-05-31 07:23:00,73.0,70.3,29.91,SSW,203,0.0,0.0,91,0.00,,,0.00,WSDL version 423,2013-05-31 12:23:00,
2013-05-31 07:24:00,73.0,70.3,29.91,South,191,0.0,0.0,92,0.00,,,0.00,WSDL version 423,2013-05-31 12:24:00,
2013-05-31 07:25:00,73.0,70.4,29.91,South,169,0.0,0.0,92,0.00,,,0.00,WSDL version 423,2013-05-31 12:25:00,
2013-05-31 07:27:00,73.0,70.6,29.91,SSW,203,0.0,0.0,92,0.00,,,0.00,WSDL version 423,2013-05-31 12:27:00,
2013-05-31 07:29:00,73.0,70.6,29.91,South,188,0.0,0.0,92,0.00,,,0.00,WSDL version 423,2013-05-31 12:29:00,
2013-05-31 07:31:00,73.0,70.6,29.91,SE,135,0.0,0.0,92,0.00,,,0.00,WSDL version 423,2013-05-31 12:31:00,
2013-05-31 07:32:00,73.0,70.6,29.91,SE,146,0.0,0.0,92,0.00,,,0.00,WSDL version 423,2013-05-31 12:32:00,
2013-05-31 07:34:00,73.0,70.6,29.91,North,0,0.0,0.0,92,0.00,,,0.00,WSDL version 423,2013-05-31 12:34:00,
2013-05-31 07:35:00,73.0,70.6,29.91,South,180,0.0,0.0,92,0.00,,,0.00,WSDL version 423,2013-05-31 12:35:00,
2013-05-31 07:38:00,73.0,70.6,29.91,South,180,0.0,0.0,92,0.00,,,0.00,WSDL version 423,2013-05-31 12:38:00,
2013-05-31 07:39:00,73.0,70.6,29.91,North,0,0.0,0.0,92,0.00,,,0.00,WSDL version 423,2013-05-31 12:39:00,
2013-05-31 07:41:00,73.0,70.6,29.91,SSW,203,0.0,0.0,92,0.00,,,0.00,WSDL version 423,2013-05-31 12:41:00,
2013-05-31 07:42:00,72.9,70.5,29.91,SSE,150,0.0,0.0,92,0.00,,,0.00,WSDL version 423,2013-05-31 12:42:00,
2013-05-31 07:43:00,72.9,70.5,29.91,SSE,158,0.0,0.0,92,0.00,,,0.00,WSDL version 423,2013-05-31 12:43:00,
2013-05-31 07:46:00,72.9,70.5,29.91,South,188,0.0,0.0,92,0.00,,,0.00,WSDL version 423,2013-05-31 12:46:00,
2013-05-31 07:47:00,72.9,70.5,29.91,SSW,195,0.0,0.0,92,0.00,,,0.00,WSDL version 423,2013-05-31 12:47:00,
2013-05-31 07:48:00,72.9,70.5,29.91,SSW,203,0.0,0.0,92,0.00,,,0.00,WSDL version 423,2013-05-31 12:48:00,
2013-05-31 07:51:00,72.8,70.5,29.91,SE,146,0.0,0.0,93,0.00,,,0.00,WSDL version 423,2013-05-31 12:51:00,
2013-05-31 07:52:00,72.8,70.6,29.91,SE,135,0.0,0.0,93,0.00,,,0.00,WSDL version 423,2013-05-31 12:52:00,
2013-05-31 07:53:00,72.8,70.7,29.91,SE,135,0.0,0.0,93,0.00,,,0.00,WSDL version 423,2013-05-31 12:53:00,
2013-05-31 07:56:00,72.8,70.8,29.91,SSE,150,0.0,0.0,93,0.00,,,0.00,WSDL version 423,2013-05-31 12:56:00,
2013-05-31 07:58:00,72.8,70.8,29.91,SE,146,0.0,0.0,93,0.00,,,0.00,WSDL version 423,2013-05-31 12:58:00,
2013-05-31 08:00:00,72.8,70.8,29.91,South,180,0.0,0.0,93,0.00,,,0.00,WSDL version 423,2013-05-31 13:00:00,
2013-05-31 08:01:00,72.8,70.8,29.91,SE,146,0.0,0.0,93,0.00,,,0.00,WSDL version 423,2013-05-31 13:01:00,
2013-05-31 08:03:00,72.8,70.8,29.91,South,191,0.0,0.0,93,0.00,,,0.00,WSDL version 423,2013-05-31 13:03:00,
2013-05-31 08:04:00,72.8,70.8,29.91,South,191,0.0,0.0,93,0.00,,,0.00,WSDL version 423,2013-05-31 13:04:00,
2013-05-31 08:05:00,72.8,70.8,29.91,South,185,0.0,0.0,93,0.00,,,0.00,WSDL version 423,2013-05-31 13:05:00,
2013-05-31 08:07:00,72.8,70.8,29.91,South,180,0.0,0.0,93,0.00,,,0.00,WSDL version 423,2013-05-31 13:07:00,
2013-05-31 08:08:00,72.8,70.8,29.91,SSE,158,0.0,0.0,93,0.00,,,0.00,WSDL version 423,2013-05-31 13:08:00,
2013-05-31 08:11:00,72.8,70.8,29.91,SSW,194,0.0,0.0,93,0.00,,,0.00,WSDL version 423,2013-05-31 13:11:00,
2013-05-31 08:13:00,72.8,70.8,29.91,SSE,165,0.0,0.0,93,0.00,,,0.00,WSDL version 423,2013-05-31 13:13:00,
2013-05-31 08:14:00,72.8,70.8,29.91,SSE,150,0.0,0.0,93,0.00,,,0.00,WSDL version 423,2013-05-31 13:14:00,
2013-05-31 08:16:00,72.8,70.8,29.88,ESE,113,0.0,0.0,94,0.00,,,0.00,WSDL version 423,2013-05-31 13:16:00,
2013-05-31 08:17:00,72.8,70.9,29.88,SE,135,0.0,0.0,94,0.00,,,0.00,WSDL version 423,2013-05-31 13:17:00,
2013-05-31 08:19:00,72.7,70.9,29.88,SE,135,0.0,0.0,94,0.00,,,0.00,WSDL version 423,2013-05-31 13:19:00,
2013-05-31 08:21:00,72.7,71.0,29.88,South,191,0.0,0.0,94,0.00,,,0.00,WSDL version 423,2013-05-31 13:21:00,
2013-05-31 08:22:00,72.7,71.0,29.88,South,180,0.0,0.0,94,0.00,,,0.00,WSDL version 423,2013-05-31 13:22:00,
2013-05-31 08:23:00,72.7,71.0,29.88,South,180,0.0,0.0,94,0.00,,,0.00,WSDL version 423,2013-05-31 13:23:00,
2013-05-31 08:24:00,72.7,71.0,29.88,South,173,0.0,0.0,94,0.00,,,0.00,WSDL version 423,2013-05-31 13:24:00,
2013-05-31 08:25:00,72.7,71.0,29.88,SSE,153,0.0,0.0,94,0.00,,,0.00,WSDL version 423,2013-05-31 13:25:00,
2013-05-31 08:29:00,72.7,71.0,29.88,SE,135,0.0,0.0,94,0.00,,,0.00,WSDL version 423,2013-05-31 13:29:00,
2013-05-31 08:30:00,72.7,71.0,29.88,SE,135,0.0,0.0,94,0.00,,,0.00,WSDL version 423,2013-05-31 13:30:00,
2013-05-31 08:32:00,72.7,71.0,29.88,North,0,0.0,0.0,94,0.00,,,0.00,WSDL version 423,2013-05-31 13:32:00,
2013-05-31 08:33:00,72.7,71.0,29.88,North,0,0.0,0.0,96,0.00,,,0.00,WSDL version 423,2013-05-31 13:33:00,
2013-05-31 08:35:00,72.7,71.2,29.88,North,-999,-999.0,-999.0,96,0.00,,,0.00,WSDL version 423,2013-05-31 13:35:00,
2013-05-31 08:38:00,72.6,71.2,29.88,North,-999,-999.0,-999.0,96,0.00,,,0.00,WSDL version 423,2013-05-31 13:38:00,
2013-05-31 08:39:00,72.5,71.2,29.88,North,-999,-999.0,-999.0,96,0.00,,,0.00,WSDL version 423,2013-05-31 13:39:00,
2013-05-31 08:40:00,72.5,71.2,29.88,North,-999,-999.0,-999.0,96,0.00,,,0.00,WSDL version 423,2013-05-31 13:40:00,
2013-05-31 08:41:00,72.5,71.1,29.88,North,-999,-999.0,-999.0,96,0.00,,,0.00,WSDL version 423,2013-05-31 13:41:00,
2013-05-31 08:44:00,72.5,71.3,29.88,North,0,0.0,0.0,97,0.00,,,0.00,WSDL version 423,2013-05-31 13:44:00,
2013-05-31 08:45:00,72.5,71.4,29.88,North,0,0.0,0.0,97,0.00,,,0.00,WSDL version 423,2013-05-31 13:45:00,
2013-05-31 08:47:00,72.5,71.5,29.88,NE,45,0.0,0.0,97,0.00,,,0.00,WSDL version 423,2013-05-31 13:47:00,
2013-05-31 08:50:00,72.5,71.5,29.88,East,81,0.0,0.0,97,0.00,,,0.00,WSDL version 423,2013-05-31 13:50:00,
2013-05-31 08:51:00,72.5,71.5,29.88,East,79,0.0,0.0,97,0.00,,,0.00,WSDL version 423,2013-05-31 13:51:00,
2013-05-31 08:53:00,72.5,71.6,29.88,East,90,0.0,0.0,98,0.00,,,0.00,WSDL version 423,2013-05-31 13:53:00,
2013-05-31 08:54:00,72.5,71.7,29.88,East,90,0.0,0.0,98,0.00,,,0.00,WSDL version 423,2013-05-31 13:54:00,
2013-05-31 08:57:00,72.5,71.8,29.88,East,81,0.0,0.0,98,0.00,,,0.00,WSDL version 423,2013-05-31 13:57:00,
2013-05-31 08:58:00,72.5,71.8,29.88,East,90,0.0,0.0,98,0.00,,,0.00,WSDL version 423,2013-05-31 13:58:00,
2013-05-31 08:59:00,72.5,71.8,29.88,East,98,0.0,0.0,98,0.00,,,0.00,WSDL version 423,2013-05-31 13:59:00,
2013-05-31 09:00:00,72.5,71.9,29.88,ENE,74,0.0,0.0,99,0.00,,,0.00,WSDL version 423,2013-05-31 14:00:00,
2013-05-31 09:02:00,72.5,72.0,29.88,East,96,0.0,0.0,99,0.00,,,0.00,WSDL version 423,2013-05-31 14:02:00,
2013-05-31 09:04:00,72.5,72.1,29.88,ESE,119,0.0,0.0,99,0.00,,,0.00,WSDL version 423,2013-05-31 14:04:00,
2013-05-31 09:05:00,72.5,72.1,29.88,East,81,0.0,0.0,99,0.00,,,0.00,WSDL version 423,2013-05-31 14:05:00,
2013-05-31 09:10:00,72.5,72.3,29.88,East,79,0.0,0.0,100,0.00,,,0.00,WSDL version 423,2013-05-31 14:10:00,
2013-05-31 09:11:00,72.5,72.3,29.88,East,90,0.0,0.0,100,0.00,,,0.00,WSDL version 423,2013-05-31 14:11:00,
2013-05-31 09:14:00,72.5,72.5,29.88,SE,124,0.0,0.0,100,0.00,,,0.00,WSDL version 423,2013-05-31 14:14:00,
2013-05-31 09:15:00,72.5,72.5,29.88,ESE,107,0.0,0.0,100,0.00,,,0.00,WSDL version 423,2013-05-31 14:15:00,
2013-05-31 09:17:00,72.5,72.5,29.85,ENE,68,0.0,0.0,100,0.00,,,0.00,WSDL version 423,2013-05-31 14:17:00,
2013-05-31 09:19:00,72.5,72.5,29.85,ENE,75,0.0,0.0,100,0.00,,,0.00,WSDL version 423,2013-05-31 14:19:00,
2013-05-31 09:20:00,72.5,72.5,29.85,NE,53,0.0,0.0,100,0.00,,,0.00,WSDL version 423,2013-05-31 14:20:00,
2013-05-31 09:23:00,72.5,72.5,29.85,East,79,0.0,0.0,100,0.00,,,0.00,WSDL version 423,2013-05-31 14:23:00,
2013-05-31 09:26:00,72.5,72.5,29.85,ESE,113,0.0,0.0,100,0.00,,,0.00,WSDL version 423,2013-05-31 14:26:00,
2013-05-31 09:27:00,72.5,72.5,29.85,SE,135,0.0,0.0,100,0.00,,,0.00,WSDL version 423,2013-05-31 14:27:00,
2013-05-31 09:28:00,72.5,72.5,29.85,NNE,23,0.0,0.0,100,0.00,,,0.00,WSDL version 423,2013-05-31 14:28:00,
2013-05-31 09:30:00,72.5,72.5,29.85,SE,146,0.0,0.0,100,0.00,,,0.00,WSDL version 423,2013-05-31 14:30:00,
2013-05-31 09:34:00,72.5,72.5,29.85,ESE,120,0.0,0.0,100,0.00,,,0.00,WSDL version 423,2013-05-31 14:34:00,
2013-05-31 09:35:00,72.6,72.6,29.85,East,101,0.0,0.0,100,0.00,,,0.00,WSDL version 423,2013-05-31 14:35:00,
2013-05-31 09:36:00,72.6,72.6,29.85,East,79,0.0,0.0,100,0.00,,,0.00,WSDL version 423,2013-05-31 14:36:00,
2013-05-31 09:37:00,72.7,72.7,29.85,East,90,0.0,0.0,100,0.00,,,0.00,WSDL version 423,2013-05-31 14:37:00,
2013-05-31 09:40:00,72.7,72.7,29.85,SE,146,0.0,0.0,100,0.00,,,0.00,WSDL version 423,2013-05-31 14:40:00,
2013-05-31 09:41:00,72.6,72.6,29.85,East,79,0.0,0.0,100,0.00,,,0.00,WSDL version 423,2013-05-31 14:41:00,
2013-05-31 09:45:00,72.5,72.5,29.85,SE,146,0.0,0.0,100,0.00,,,0.00,WSDL version 423,2013-05-31 14:45:00,
2013-05-31 09:46:00,72.5,72.5,29.85,ESE,122,0.0,0.0,100,0.00,,,0.00,WSDL version 423,2013-05-31 14:46:00,
2013-05-31 09:48:00,72.4,72.4,29.85,SSE,151,0.0,0.0,100,0.00,,,0.00,WSDL version 423,2013-05-31 14:48:00,
2013-05-31 09:50:00,72.3,72.3,29.85,South,184,0.0,0.0,100,0.00,,,0.00,WSDL version 423,2013-05-31 14:50:00,
2013-05-31 09:51:00,72.2,72.2,29.85,South,186,0.0,0.0,100,0.00,,,0.00,WSDL version 423,2013-05-31 14:51:00,
2013-05-31 09:55:00,71.9,71.7,29.85,South,191,0.0,0.0,99,0.00,,,0.00,WSDL version 423,2013-05-31 14:55:00,
2013-05-31 09:56:00,71.8,71.6,29.85,SSE,165,0.0,0.0,99,0.00,,,0.00,WSDL version 423,2013-05-31 14:56:00,
2013-05-31 09:58:00,71.7,71.2,29.85,SW,225,0.0,0.0,98,0.00,,,0.00,WSDL version 423,2013-05-31 14:58:00,
2013-05-31 09:59:00,71.6,71.1,29.85,SSE,161,0.0,0.0,98,0.00,,,0.00,WSDL version 423,2013-05-31 14:59:00,
2013-05-31 10:03:00,71.4,70.7,29.88,SE,145,0.0,0.0,97,0.00,,,0.00,WSDL version 423,2013-05-31 15:03:00,
2013-05-31 10:04:00,71.4,70.6,29.88,SE,135,0.0,0.0,97,0.00,,,0.00,WSDL version 423,2013-05-31 15:04:00,
2013-05-31 10:05:00,71.4,70.5,29.88,SE,124,0.0,0.0,97,0.00,,,0.00,WSDL version 423,2013-05-31 15:05:00,
2013-05-31 10:06:00,71.3,70.4,29.88,SSE,150,0.0,0.0,97,0.00,,,0.00,WSDL version 423,2013-05-31 15:06:00,
2013-05-31 10:09:00,71.2,70.2,29.88,South,169,0.0,0.0,97,0.00,,,0.00,WSDL version 423,2013-05-31 15:09:00,
2013-05-31 10:12:00,71.2,70.2,29.88,SE,135,0.0,0.0,97,0.00,,,0.00,WSDL version 423,2013-05-31 15:12:00,
2013-05-31 10:13:00,71.2,70.2,29.88,SE,135,0.0,0.0,97,0.00,,,0.00,WSDL version 423,2013-05-31 15:13:00,
2013-05-31 10:14:00,71.1,70.2,29.88,North,0,0.0,0.0,97,0.00,,,0.00,WSDL version 423,2013-05-31 15:14:00,
2013-05-31 10:16:00,71.1,69.9,29.85,North,0,0.0,0.0,96,0.00,,,0.00,WSDL version 423,2013-05-31 15:16:00,
2013-05-31 10:17:00,71.1,69.8,29.85,SE,146,0.0,0.0,96,0.00,,,0.00,WSDL version 423,2013-05-31 15:17:00,
2013-05-31 10:18:00,71.0,69.8,29.85,SE,146,0.0,0.0,96,0.00,,,0.00,WSDL version 423,2013-05-31 15:18:00,
2013-05-31 10:20:00,71.0,69.6,29.85,South,173,0.0,0.0,96,0.00,,,0.00,WSDL version 423,2013-05-31 15:20:00,
2013-05-31 10:21:00,70.9,69.6,29.85,South,176,0.0,0.0,96,0.00,,,0.00,WSDL version 423,2013-05-31 15:21:00,
2013-05-31 10:23:00,70.9,69.5,29.85,South,171,0.0,0.0,96,0.00,,,0.00,WSDL version 423,2013-05-31 15:23:00,
2013-05-31 10:24:00,70.9,69.6,29.85,SSE,148,0.0,0.0,96,0.00,,,0.00,WSDL version 423,2013-05-31 15:24:00,
2013-05-31 10:26:00,71.0,69.6,29.85,SE,135,0.0,0.0,96,0.00,,,0.00,WSDL version 423,2013-05-31 15:26:00,
2013-05-31 10:29:00,70.9,69.6,29.85,NE,56,0.0,0.0,96,0.00,,,0.00,WSDL version 423,2013-05-31 15:29:00,
2013-05-31 10:30:00,70.9,69.6,29.85,East,90,0.0,0.0,96,0.00,,,0.00,WSDL version 423,2013-05-31 15:30:00,
2013-05-31 10:31:00,70.9,69.5,29.85,East,101,0.0,0.0,96,0.00,,,0.00,WSDL version 423,2013-05-31 15:31:00,
2013-05-31 10:32:00,70.9,69.5,29.85,SE,135,0.0,0.0,96,0.00,,,0.00,WSDL version 423,2013-05-31 15:32:00,
2013-05-31 10:34:00,70.9,69.6,29.85,South,169,0.0,0.0,96,0.00,,,0.00,WSDL version 423,2013-05-31 15:34:00,
2013-05-31 10:36:00,71.0,69.6,29.85,SSE,163,0.0,0.0,96,0.00,,,0.00,WSDL version 423,2013-05-31 15:36:00,
2013-05-31 10:38:00,71.1,69.8,29.85,South,169,0.0,0.0,96,0.00,,,0.00,WSDL version 423,2013-05-31 15:38:00,
2013-05-31 10:41:00,71.4,70.3,29.85,South,177,0.0,0.0,97,0.00,,,0.00,WSDL version 423,2013-05-31 15:41:00,
2013-05-31 10:44:00,71.7,70.7,29.85,South,188,0.0,0.0,97,0.00,,,0.00,WSDL version 423,2013-05-31 15:44:00,
2013-05-31 10:47:00,72.0,71.0,29.88,SSE,154,0.0,0.0,97,0.00,,,0.00,WSDL version 423,2013-05-31 15:47:00,
2013-05-31 10:48:00,72.1,71.1,29.88,SSE,150,0.0,0.0,97,0.00,,,0.00,WSDL version 423,2013-05-31 15:48:00,
2013-05-31 10:49:00,72.2,71.2,29.88,SSE,165,0.0,0.0,97,0.00,,,0.00,WSDL version 423,2013-05-31 15:49:00,
2013-05-31 10:51:00,72.3,71.3,29.88,SSW,196,0.0,0.0,97,0.00,,,0.00,WSDL version 423,2013-05-31 15:51:00,
2013-05-31 10:52:00,72.4,71.4,29.88,South,183,0.0,0.0,97,0.00,,,0.00,WSDL version 423,2013-05-31 15:52:00,
2013-05-31 10:53:00,72.4,71.4,29.88,ESE,104,0.0,0.0,97,0.00,,,0.00,WSDL version 423,2013-05-31 15:53:00,
2013-05-31 10:56:00,72.6,71.4,29.88,SSE,161,0.0,0.0,96,0.00,,,0.00,WSDL version 423,2013-05-31 15:56:00,
2013-05-31 10:57:00,72.7,71.4,29.88,SE,139,0.0,0.0,96,0.00,,,0.00,WSDL version 423,2013-05-31 15:57:00,
2013-05-31 10:59:00,73.1,71.7,29.88,South,185,0.0,0.0,96,0.00,,,0.00,WSDL version 423,2013-05-31 15:59:00,
2013-05-31 11:02:00,73.5,72.1,29.88,SSW,211,0.0,0.0,94,0.00,,,0.00,WSDL version 423,2013-05-31 16:02:00,
2013-05-31 11:04:00,73.8,72.2,29.88,SE,132,0.0,0.0,94,0.00,,,0.00,WSDL version 423,2013-05-31 16:04:00,
2013-05-31 11:05:00,74.0,72.4,29.88,SSE,152,0.0,0.0,94,0.00,,,0.00,WSDL version 423,2013-05-31 16:05:00,
2013-05-31 11:06:00,74.2,72.5,29.88,South,180,0.0,0.0,94,0.00,,,0.00,WSDL version 423,2013-05-31 16:06:00,
2013-05-31 11:08:00,74.6,72.8,29.88,SSW,203,0.0,0.0,93,0.00,,,0.00,WSDL version 423,2013-05-31 16:08:00,
2013-05-31 11:09:00,74.8,72.9,29.88,South,190,0.0,0.0,93,0.00,,,0.00,WSDL version 423,2013-05-31 16:09:00,
2013-05-31 11:10:00,74.9,72.9,29.88,South,175,0.0,0.0,92,0.00,,,0.00,WSDL version 423,2013-05-31 16:10:00,
2013-05-31 11:11:00,75.0,72.8,29.88,South,180,0.0,0.0,91,0.00,,,0.00,WSDL version 423,2013-05-31 16:11:00,
2013-05-31 11:13:00,75.2,72.7,29.88,South,183,0.0,0.0,90,0.00,,,0.00,WSDL version 423,2013-05-31 16:13:00,
2013-05-31 11:15:00,75.5,72.4,29.88,SW,219,0.0,0.0,89,0.00,,,0.00,WSDL version 423,2013-05-31 16:15:00,
2013-05-31 11:16:00,75.6,72.4,29.88,WSW,253,0.0,0.0,89,0.00,,,0.00,WSDL version 423,2013-05-31 16:16:00,
2013-05-31 11:19:00,76.2,72.2,29.88,SE,145,0.0,0.0,87,0.00,,,0.00,WSDL version 423,2013-05-31 16:19:00,
2013-05-31 11:21:00,76.5,71.9,29.88,South,177,0.0,0.0,83,0.00,,,0.00,WSDL version 423,2013-05-31 16:21:00,
2013-05-31 11:22:00,76.6,71.3,29.88,SW,219,0.0,0.0,80,0.00,,,0.00,WSDL version 423,2013-05-31 16:22:00,
2013-05-31 11:23:00,76.7,70.7,29.88,SSE,160,0.0,0.0,80,0.00,,,0.00,WSDL version 423,2013-05-31 16:23:00,
2013-05-31 11:24:00,76.7,70.6,29.88,South,170,0.0,0.0,80,0.00,,,0.00,WSDL version 423,2013-05-31 16:24:00,
2013-05-31 11:25:00,76.8,70.4,29.88,East,87,0.0,0.0,80,0.00,,,0.00,WSDL version 423,2013-05-31 16:25:00,
2013-05-31 11:29:00,77.1,69.6,29.88,SSE,166,0.0,0.0,76,0.00,,,0.00,WSDL version 423,2013-05-31 16:29:00,
2013-05-31 11:30:00,77.2,69.3,29.88,South,173,0.0,0.0,75,0.00,,,0.00,WSDL version 423,2013-05-31 16:30:00,
2013-05-31 11:32:00,77.3,69.0,29.88,SSE,152,0.0,0.0,75,0.00,,,0.00,WSDL version 423,2013-05-31 16:32:00,
2013-05-31 11:34:00,77.4,69.0,29.88,SSE,163,0.0,0.0,76,0.00,,,0.00,WSDL version 423,2013-05-31 16:34:00,
2013-05-31 11:35:00,77.4,69.0,29.88,SE,127,0.0,0.0,76,0.00,,,0.00,WSDL version 423,2013-05-31 16:35:00,
2013-05-31 11:36:00,77.4,69.1,29.88,SE,132,0.0,0.0,76,0.00,,,0.00,WSDL version 423,2013-05-31 16:36:00,
2013-05-31 11:39:00,77.4,69.0,29.88,SSE,152,0.0,0.0,75,0.00,,,0.00,WSDL version 423,2013-05-31 16:39:00,
2013-05-31 11:40:00,77.5,68.9,29.88,SE,145,0.0,0.0,74,0.00,,,0.00,WSDL version 423,2013-05-31 16:40:00,
2013-05-31 11:43:00,77.6,68.8,29.88,SE,145,0.0,0.0,74,0.00,,,0.00,WSDL version 423,2013-05-31 16:43:00,
2013-05-31 11:46:00,77.8,68.8,29.88,NE,51,0.0,0.0,73,0.00,,,0.00,WSDL version 423,2013-05-31 16:46:00,
2013-05-31 11:47:00,77.9,68.8,29.88,SE,143,0.0,0.0,73,0.00,,,0.00,WSDL version 423,2013-05-31 16:47:00,
2013-05-31 11:48:00,78.0,68.9,29.88,SSE,158,0.0,0.0,73,0.00,,,0.00,WSDL version 423,2013-05-31 16:48:00,
2013-05-31 11:51:00,78.3,69.0,29.88,SE,146,0.0,0.0,73,0.00,,,0.00,WSDL version 423,2013-05-31 16:51:00,
2013-05-31 11:52:00,78.5,69.1,29.88,SSE,160,0.0,0.0,72,0.00,,,0.00,WSDL version 423,2013-05-31 16:52:00,
2013-05-31 11:54:00,79.0,69.7,29.88,SE,145,0.0,0.0,74,0.00,,,0.00,WSDL version 423,2013-05-31 16:54:00,
2013-05-31 11:55:00,79.4,70.1,29.88,WSW,255,0.0,0.0,73,0.00,,,0.00,WSDL version 423,2013-05-31 16:55:00,
2013-05-31 11:56:00,79.7,70.3,29.88,SE,135,0.0,0.0,72,0.00,,,0.00,WSDL version 423,2013-05-31 16:56:00,
2013-05-31 11:57:00,79.9,70.5,29.88,East,96,0.0,0.0,72,0.00,,,0.00,WSDL version 423,2013-05-31 16:57:00,
2013-05-31 11:58:00,80.1,70.6,29.88,South,190,0.0,0.0,72,0.00,,,0.00,WSDL version 423,2013-05-31 16:58:00,
2013-05-31 12:02:00,81.2,70.4,29.88,SSE,148,0.0,0.0,69,0.00,,,0.00,WSDL version 423,2013-05-31 17:02:00,
2013-05-31 12:03:00,81.3,70.2,29.88,South,174,0.0,0.0,67,0.00,,,0.00,WSDL version 423,2013-05-31 17:03:00,
2013-05-31 12:04:00,81.5,70.1,29.88,South,180,0.0,0.0,67,0.00,,,0.00,WSDL version 423,2013-05-31 17:04:00,
2013-05-31 12:06:00,81.7,69.9,29.88,South,188,0.0,0.0,67,0.00,,,0.00,WSDL version 423,2013-05-31 17:06:00,
2013-05-31 12:08:00,81.9,69.8,29.88,SSW,205,0.0,0.0,66,0.00,,,0.00,WSDL version 423,2013-05-31 17:08:00,
2013-05-31 12:11:00,82.1,69.3,29.88,SSW,197,0.0,0.0,63,0.00,,,0.00,WSDL version 423,2013-05-31 17:11:00,
2013-05-31 12:12:00,82.2,69.0,29.88,SSW,200,0.0,0.0,63,0.00,,,0.00,WSDL version 423,2013-05-31 17:12:00,
2013-05-31 12:15:00,82.2,68.3,29.88,SSE,150,0.0,0.0,63,0.00,,,0.00,WSDL version 423,2013-05-31 17:15:00,
2013-05-31 12:16:00,82.1,68.0,29.88,SSE,155,0.0,0.0,61,0.00,,,0.00,WSDL version 423,2013-05-31 17:16:00,
2013-05-31 12:17:00,82.1,67.8,29.88,South,169,0.0,0.0,62,0.00,,,0.00,WSDL version 423,2013-05-31 17:17:00,
2013-05-31 12:18:00,82.1,67.7,29.88,South,174,0.0,0.0,61,0.00,,,0.00,WSDL version 423,2013-05-31 17:18:00,
2013-05-31 12:21:00,82.3,67.0,29.88,SE,143,0.0,0.0,60,0.00,,,0.00,WSDL version 423,2013-05-31 17:21:00,
2013-05-31 12:22:00,82.5,66.9,29.88,SSE,163,0.0,0.0,60,0.00,,,0.00,WSDL version 423,2013-05-31 17:22:00,
2013-05-31 12:23:00,82.6,66.8,29.88,South,170,0.0,0.0,59,0.00,,,0.00,WSDL version 423,2013-05-31 17:23:00,
2013-05-31 12:25:00,82.8,66.5,29.88,SSW,200,0.0,0.0,56,0.00,,,0.00,WSDL version 423,2013-05-31 17:25:00,
2013-05-31 12:26:00,82.7,66.1,29.88,South,188,0.0,0.0,56,0.00,,,0.00,WSDL version 423,2013-05-31 17:26:00,
2013-05-31 12:28:00,82.4,65.4,29.88,SSE,166,0.0,0.0,56,0.00,,,0.00,WSDL version 423,2013-05-31 17:28:00,
2013-05-31 12:29:00,82.2,65.0,29.88,SSE,161,0.0,0.0,55,0.00,,,0.00,WSDL version 423,2013-05-31 17:29:00,
2013-05-31 12:30:00,81.9,64.8,29.88,East,96,0.0,0.0,57,0.00,,,0.00,WSDL version 423,2013-05-31 17:30:00,
2013-05-31 12:31:00,81.8,64.8,29.88,ESE,113,0.0,0.0,57,0.00,,,0.00,WSDL version 423,2013-05-31 17:31:00,
2013-05-31 12:32:00,81.7,64.7,29.88,SSE,163,0.0,0.0,57,0.00,,,0.00,WSDL version 423,2013-05-31 17:32:00,
2013-05-31 12:34:00,81.7,64.8,29.88,SSE,168,0.0,0.0,56,0.00,,,0.00,WSDL version 423,2013-05-31 17:34:00,
2013-05-31 12:35:00,81.8,64.8,29.88,SSW,200,0.0,0.0,56,0.00,,,0.00,WSDL version 423,2013-05-31 17:35:00,
2013-05-31 12:37:00,81.8,64.7,29.88,North,3,0.0,0.0,56,0.00,,,0.00,WSDL version 423,2013-05-31 17:37:00,
2013-05-31 12:41:00,81.8,65.0,29.88,SSE,148,0.0,0.0,57,0.00,,,0.00,WSDL version 423,2013-05-31 17:41:00,
2013-05-31 12:42:00,81.9,65.2,29.88,South,172,0.0,0.0,58,0.00,,,0.00,WSDL version 423,2013-05-31 17:42:00,
2013-05-31 12:44:00,82.0,65.6,29.88,SSE,153,0.0,0.0,59,0.00,,,0.00,WSDL version 423,2013-05-31 17:44:00,
2013-05-31 12:45:00,82.1,66.0,29.88,SSE,166,0.0,0.0,59,0.00,,,0.00,WSDL version 423,2013-05-31 17:45:00,
2013-05-31 12:47:00,82.2,66.1,29.88,South,186,0.0,0.0,58,0.00,,,0.00,WSDL version 423,2013-05-31 17:47:00,
2013-05-31 12:48:00,82.3,65.7,29.88,SW,228,0.0,0.0,56,0.00,,,0.00,WSDL version 423,2013-05-31 17:48:00,
2013-05-31 12:50:00,82.3,65.1,29.88,SSE,158,0.0,0.0,55,0.00,,,0.00,WSDL version 423,2013-05-31 17:50:00,
2013-05-31 12:52:00,82.2,64.6,29.88,SSE,158,0.0,0.0,55,0.00,,,0.00,WSDL version 423,2013-05-31 17:52:00,
2013-05-31 12:53:00,82.2,64.3,29.88,SSE,152,0.0,0.0,54,0.00,,,0.00,WSDL version 423,2013-05-31 17:53:00,
2013-05-31 12:54:00,82.1,64.0,29.88,South,188,0.0,0.0,53,0.00,,,0.00,WSDL version 423,2013-05-31 17:54:00,
2013-05-31 12:58:00,81.8,63.3,29.88,SE,143,0.0,0.0,54,0.00,,,0.00,WSDL version 423,2013-05-31 17:58:00,
2013-05-31 12:59:00,81.9,63.5,29.88,SSE,155,0.0,0.0,55,0.00,,,0.00,WSDL version 423,2013-05-31 17:59:00,
2013-05-31 13:00:00,82.1,64.0,29.88,East,101,0.0,0.0,55,0.00,,,0.00,WSDL version 423,2013-05-31 18:00:00,
2013-05-31 13:04:00,82.4,64.2,29.91,SSE,168,0.0,0.0,53,0.00,,,0.00,WSDL version 423,2013-05-31 18:04:00,
2013-05-31 13:05:00,82.4,64.1,29.91,South,173,0.0,0.0,53,0.00,,,0.00,WSDL version 423,2013-05-31 18:05:00,
2013-05-31 13:06:00,82.5,64.0,29.91,SSE,163,0.0,0.0,53,0.00,,,0.00,WSDL version 423,2013-05-31 18:06:00,
2013-05-31 13:09:00,83.0,64.6,29.91,SSE,148,0.0,0.0,55,0.00,,,0.00,WSDL version 423,2013-05-31 18:09:00,
2013-05-31 13:10:00,83.3,65.2,29.91,SSE,148,0.0,0.0,55,0.00,,,0.00,WSDL version 423,2013-05-31 18:10:00,
2013-05-31 13:12:00,83.6,65.5,29.91,SE,135,0.0,0.0,53,0.00,,,0.00,WSDL version 423,2013-05-31 18:12:00,
2013-05-31 13:15:00,83.9,64.7,29.91,SE,140,0.0,0.0,52,0.00,,,0.00,WSDL version 423,2013-05-31 18:15:00,
2013-05-31 13:16:00,83.9,64.4,29.88,South,170,0.0,0.0,52,0.00,,,0.00,WSDL version 423,2013-05-31 18:16:00,
2013-05-31 13:17:00,83.9,64.3,29.88,SSE,158,0.0,0.0,52,0.00,,,0.00,WSDL version 423,2013-05-31 18:17:00,
2013-05-31 13:18:00,84.0,64.2,29.88,SE,130,0.0,0.0,52,0.00,,,0.00,WSDL version 423,2013-05-31 18:18:00,
2013-05-31 13:21:00,84.0,64.0,29.88,NW,312,0.0,0.0,51,0.00,,,0.00,WSDL version 423,2013-05-31 18:21:00,
2013-05-31 13:22:00,83.9,63.9,29.88,SSE,160,0.0,0.0,51,0.00,,,0.00,WSDL version 423,2013-05-31 18:22:00,
2013-05-31 13:23:00,83.8,63.6,29.88,SSE,165,0.0,0.0,51,0.00,,,0.00,WSDL version 423,2013-05-31 18:23:00,
2013-05-31 13:27:00,83.6,63.5,29.88,SE,124,0.0,0.0,51,0.00,,,0.00,WSDL version 423,2013-05-31 18:27:00,
2013-05-31 13:28:00,83.5,63.4,29.88,SSE,152,0.0,0.0,51,0.00,,,0.00,WSDL version 423,2013-05-31 18:28:00,
2013-05-31 13:29:00,83.5,63.4,29.88,WNW,283,0.0,0.0,51,0.00,,,0.00,WSDL version 423,2013-05-31 18:29:00,
2013-05-31 13:30:00,83.3,63.2,29.88,SSE,158,0.0,0.0,51,0.00,,,0.00,WSDL version 423,2013-05-31 18:30:00,
2013-05-31 13:33:00,82.9,62.8,29.91,South,174,0.0,0.0,51,0.00,,,0.00,WSDL version 423,2013-05-31 18:33:00,
2013-05-31 13:34:00,82.8,62.6,29.91,SSE,165,0.0,0.0,50,0.00,,,0.00,WSDL version 423,2013-05-31 18:34:00,
2013-05-31 13:35:00,82.7,62.4,29.91,SSE,160,0.0,0.0,49,0.00,,,0.00,WSDL version 423,2013-05-31 18:35:00,
2013-05-31 13:36:00,82.6,62.2,29.91,SSE,163,0.0,0.0,50,0.00,,,0.00,WSDL version 423,2013-05-31 18:36:00,
2013-05-31 13:40:00,82.6,62.2,29.91,SE,133,0.0,0.0,51,0.00,,,0.00,WSDL version 423,2013-05-31 18:40:00,
2013-05-31 13:42:00,82.7,62.8,29.91,SE,138,0.0,0.0,52,0.00,,,0.00,WSDL version 423,2013-05-31 18:42:00,
2013-05-31 13:43:00,82.8,63.0,29.91,SE,130,0.0,0.0,52,0.00,,,0.00,WSDL version 423,2013-05-31 18:43:00,
2013-05-31 13:46:00,82.9,63.4,29.91,SE,128,0.0,0.0,52,0.00,,,0.00,WSDL version 423,2013-05-31 18:46:00,
2013-05-31 13:47:00,82.8,63.4,29.91,SE,140,0.0,0.0,52,0.00,,,0.00,WSDL version 423,2013-05-31 18:47:00,
2013-05-31 13:48:00,82.9,63.3,29.91,SSE,161,0.0,0.0,52,0.00,,,0.00,WSDL version 423,2013-05-31 18:48:00,
2013-05-31 13:49:00,82.9,63.3,29.91,South,173,0.0,0.0,52,0.00,,,0.00,WSDL version 423,2013-05-31 18:49:00,
2013-05-31 13:54:00,83.0,63.1,29.91,SE,125,0.0,0.0,52,0.00,,,0.00,WSDL version 423,2013-05-31 18:54:00,
2013-05-31 13:56:00,82.9,63.1,29.91,ESE,103,0.0,0.0,51,0.00,,,0.00,WSDL version 423,2013-05-31 18:56:00,
2013-05-31 13:57:00,82.9,63.1,29.91,East,98,0.0,0.0,52,0.00,,,0.00,WSDL version 423,2013-05-31 18:57:00,
2013-05-31 13:58:00,82.8,63.2,29.91,ESE,110,0.0,0.0,52,0.00,,,0.00,WSDL version 423,2013-05-31 18:58:00,
2013-05-31 14:00:00,82.7,63.1,29.91,ESE,113,0.0,0.0,52,0.00,,,0.00,WSDL version 423,2013-05-31 19:00:00,
2013-05-31 14:01:00,82.7,63.2,29.91,SSE,153,0.0,0.0,52,0.00,,,0.00,WSDL version 423,2013-05-31 19:01:00,
2013-05-31 14:02:00,82.7,63.2,29.91,ENE,68,0.0,0.0,52,0.00,,,0.00,WSDL version 423,2013-05-31 19:02:00,
2013-05-31 14:05:00,82.7,63.2,29.91,East,95,0.0,0.0,52,0.00,,,0.00,WSDL version 423,2013-05-31 19:05:00,
2013-05-31 14:08:00,82.5,63.1,29.91,ESE,123,0.0,0.0,52,0.00,,,0.00,WSDL version 423,2013-05-31 19:08:00,
2013-05-31 14:10:00,82.2,62.9,29.91,ESE,115,0.0,0.0,52,0.00,,,0.00,WSDL version 423,2013-05-31 19:10:00,
2013-05-31 14:12:00,82.3,63.1,29.91,South,173,0.0,0.0,52,0.00,,,0.00,WSDL version 423,2013-05-31 19:12:00,
2013-05-31 14:13:00,82.4,63.4,29.91,SSE,158,0.0,0.0,53,0.00,,,0.00,WSDL version 423,2013-05-31 19:13:00,
2013-05-31 14:15:00,82.7,63.8,29.91,ESE,121,0.0,0.0,53,0.00,,,0.00,WSDL version 423,2013-05-31 19:15:00,
2013-05-31 14:16:00,83.0,64.2,29.88,SE,125,0.0,0.0,53,0.00,,,0.00,WSDL version 423,2013-05-31 19:16:00,
2013-05-31 14:20:00,83.8,65.3,29.88,SSE,155,0.0,0.0,55,0.00,,,0.00,WSDL version 423,2013-05-31 19:20:00,
2013-05-31 14:21:00,84.0,65.5,29.88,NW,323,0.0,0.0,54,0.00,,,0.00,WSDL version 423,2013-05-31 19:21:00,
2013-05-31 14:23:00,84.3,65.6,29.88,ESE,103,0.0,0.0,52,0.00,,,0.00,WSDL version 423,2013-05-31 19:23:00,
2013-05-31 14:25:00,84.2,65.2,29.88,ENE,70,0.0,0.0,53,0.00,,,0.00,WSDL version 423,2013-05-31 19:25:00,
2013-05-31 14:27:00,84.5,65.6,29.88,East,90,0.0,0.0,53,0.00,,,0.00,WSDL version 423,2013-05-31 19:27:00,
2013-05-31 14:28:00,84.5,65.6,29.88,East,95,0.0,0.0,52,0.00,,,0.00,WSDL version 423,2013-05-31 19:28:00,
2013-05-31 14:31:00,84.8,65.5,29.88,ESE,115,0.0,0.0,52,0.00,,,0.00,WSDL version 423,2013-05-31 19:31:00,
2013-05-31 14:32:00,84.8,65.5,29.88,North,8,0.0,0.0,53,0.00,,,0.00,WSDL version 423,2013-05-31 19:32:00,
2013-05-31 14:33:00,84.9,65.8,29.88,SSE,151,0.0,0.0,53,0.00,,,0.00,WSDL version 423,2013-05-31 19:33:00,
2013-05-31 14:36:00,85.0,65.9,29.88,ENE,78,0.0,0.0,53,0.00,,,0.00,WSDL version 423,2013-05-31 19:36:00,
2013-05-31 14:37:00,84.8,65.6,29.88,East,79,0.0,0.0,52,0.00,,,0.00,WSDL version 423,2013-05-31 19:37:00,
2013-05-31 14:38:00,84.7,65.4,29.88,East,79,0.0,0.0,52,0.00,,,0.00,WSDL version 423,2013-05-31 19:38:00,
2013-05-31 14:40:00,84.2,65.0,29.88,ENE,70,0.0,0.0,52,0.00,,,0.00,WSDL version 423,2013-05-31 19:40:00,
2013-05-31 14:42:00,83.9,64.9,29.88,SE,124,0.0,0.0,53,0.00,,,0.00,WSDL version 423,2013-05-31 19:42:00,
2013-05-31 14:43:00,83.9,64.9,29.88,South,186,0.0,0.0,53,0.00,,,0.00,WSDL version 423,2013-05-31 19:43:00,
2013-05-31 14:44:00,83.8,64.9,29.88,SE,141,0.0,0.0,54,0.00,,,0.00,WSDL version 423,2013-05-31 19:44:00,
2013-05-31 14:47:00,83.7,65.3,29.88,SSE,160,0.0,0.0,54,0.00,,,0.00,WSDL version 423,2013-05-31 19:47:00,
2013-05-31 14:48:00,83.6,65.4,29.88,ESE,121,0.0,0.0,54,0.00,,,0.00,WSDL version 423,2013-05-31 19:48:00,
2013-05-31 14:51:00,83.7,65.2,29.88,SSW,194,0.0,0.0,53,0.00,,,0.00,WSDL version 423,2013-05-31 19:51:00,
2013-05-31 14:53:00,83.7,65.2,29.88,SSE,155,0.0,0.0,54,0.00,,,0.00,WSDL version 423,2013-05-31 19:53:00,
2013-05-31 14:54:00,83.8,65.3,29.88,East,85,0.0,0.0,54,0.00,,,0.00,WSDL version 423,2013-05-31 19:54:00,
2013-05-31 14:55:00,83.7,65.5,29.88,ENE,62,0.0,0.0,55,0.00,,,0.00,WSDL version 423,2013-05-31 19:55:00,
2013-05-31 14:58:00,83.6,65.9,29.88,SSW,209,0.0,0.0,56,0.00,,,0.00,WSDL version 423,2013-05-31 19:58:00,
2013-05-31 15:00:00,83.6,66.1,29.88,WNW,293,0.0,0.0,55,0.00,,,0.00,WSDL version 423,2013-05-31 20:00:00,
2013-05-31 15:02:00,83.9,66.2,29.88,SSE,158,0.0,0.0,55,0.00,,,0.00,WSDL version 423,2013-05-31 20:02:00,
2013-05-31 15:03:00,84.0,66.1,29.88,WSW,238,0.0,0.0,54,0.00,,,0.00,WSDL version 423,2013-05-31 20:03:00,
2013-05-31 15:06:00,84.2,66.1,29.88,WSW,242,0.0,0.0,55,0.00,,,0.00,WSDL version 423,2013-05-31 20:06:00,
2013-05-31 15:08:00,84.3,66.3,29.88,NE,43,0.0,0.0,55,0.00,,,0.00,WSDL version 423,2013-05-31 20:08:00,
2013-05-31 15:10:00,84.5,66.7,29.88,SSE,152,0.0,0.0,55,0.00,,,0.00,WSDL version 423,2013-05-31 20:10:00,
2013-05-31 15:11:00,84.6,66.8,29.88,SSE,161,0.0,0.0,55,0.00,,,0.00,WSDL version 423,2013-05-31 20:11:00,
2013-05-31 15:12:00,84.8,66.9,29.88,ESE,119,0.0,0.0,55,0.00,,,0.00,WSDL version 423,2013-05-31 20:12:00,
2013-05-31 15:13:00,84.9,67.1,29.88,ESE,118,0.0,0.0,56,0.00,,,0.00,WSDL version 423,2013-05-31 20:13:00,
2013-05-31 15:15:00,85.0,66.9,29.88,South,178,0.0,0.0,53,0.00,,,0.00,WSDL version 423,2013-05-31 20:15:00,
2013-05-31 15:17:00,85.2,66.7,29.88,SSE,163,0.0,0.0,53,0.00,,,0.00,WSDL version 423,2013-05-31 20:17:00,
2013-05-31 15:18:00,85.2,66.4,29.88,SSW,195,0.0,0.0,53,0.00,,,0.00,WSDL version 423,2013-05-31 20:18:00,
2013-05-31 15:19:00,85.3,66.4,29.88,SW,219,0.0,0.0,53,0.00,,,0.00,WSDL version 423,2013-05-31 20:19:00,
2013-05-31 15:23:00,85.6,66.3,29.88,SSE,151,0.0,0.0,52,0.00,,,0.00,WSDL version 423,2013-05-31 20:23:00,
2013-05-31 15:24:00,85.6,66.2,29.88,SE,127,0.0,0.0,52,0.00,,,0.00,WSDL version 423,2013-05-31 20:24:00,
2013-05-31 15:26:00,85.5,65.9,29.88,SSE,155,0.0,0.0,52,0.00,,,0.00,WSDL version 423,2013-05-31 20:26:00,
2013-05-31 15:27:00,85.3,65.6,29.88,SSE,158,0.0,0.0,52,0.00,,,0.00,WSDL version 423,2013-05-31 20:27:00,
2013-05-31 15:29:00,85.0,65.3,29.88,SE,145,0.0,0.0,52,0.00,,,0.00,WSDL version 423,2013-05-31 20:29:00,
2013-05-31 15:30:00,84.9,65.4,29.88,SE,124,0.0,0.0,53,0.00,,,0.00,WSDL version 423,2013-05-31 20:30:00,
2013-05-31 15:31:00,84.7,65.4,29.88,ESE,105,0.0,0.0,53,0.00,,,0.00,WSDL version 423,2013-05-31 20:31:00,
2013-05-31 15:34:00,84.2,65.6,29.88,South,180,0.0,0.0,54,0.00,,,0.00,WSDL version 423,2013-05-31 20:34:00,
2013-05-31 15:36:00,84.1,65.6,29.88,SSE,158,0.0,0.0,54,0.00,,,0.00,WSDL version 423,2013-05-31 20:36:00,
2013-05-31 15:37:00,84.0,65.6,29.88,SE,143,0.0,0.0,54,0.00,,,0.00,WSDL version 423,2013-05-31 20:37:00,
2013-05-31 15:38:00,83.9,65.7,29.88,South,170,0.0,0.0,55,0.00,,,0.00,WSDL version 423,2013-05-31 20:38:00,
2013-05-31 15:43:00,83.9,66.3,29.88,SSE,158,0.0,0.0,56,0.00,,,0.00,WSDL version 423,2013-05-31 20:43:00,
2013-05-31 15:44:00,83.9,66.4,29.88,SSE,148,0.0,0.0,56,0.00,,,0.00,WSDL version 423,2013-05-31 20:44:00,
2013-05-31 15:47:00,83.7,66.4,29.88,SE,127,0.0,0.0,56,0.00,,,0.00,WSDL version 423,2013-05-31 20:47:00,
2013-05-31 15:48:00,83.7,66.4,29.88,West,267,0.0,0.0,56,0.00,,,0.00,WSDL version 423,2013-05-31 20:48:00,
2013-05-31 15:49:00,83.6,66.5,29.88,SSE,165,0.0,0.0,57,0.00,,,0.00,WSDL version 423,2013-05-31 20:49:00,
2013-05-31 15:51:00,83.6,66.6,29.88,SSE,164,0.0,0.0,57,0.00,,,0.00,WSDL version 423,2013-05-31 20:51:00,
2013-05-31 15:53:00,83.7,67.0,29.88,ESE,113,0.0,0.0,58,0.00,,,0.00,WSDL version 423,2013-05-31 20:53:00,
2013-05-31 15:54:00,83.8,67.2,29.88,East,87,0.0,0.0,58,0.00,,,0.00,WSDL version 423,2013-05-31 20:54:00,
2013-05-31 15:55:00,83.9,67.4,29.88,ESE,113,0.0,0.0,58,0.00,,,0.00,WSDL version 423,2013-05-31 20:55:00,
2013-05-31 15:58:00,84.7,68.2,29.88,East,90,0.0,0.0,58,0.00,,,0.00,WSDL version 423,2013-05-31 20:58:00,
2013-05-31 15:59:00,84.9,68.4,29.88,SE,133,0.0,0.0,58,0.00,,,0.00,WSDL version 423,2013-05-31 20:59:00,
2013-05-31 16:00:00,85.0,68.5,29.88,ESE,103,0.0,0.0,57,0.00,,,0.00,WSDL version 423,2013-05-31 21:00:00,
2013-05-31 16:03:00,85.2,68.4,29.88,SSE,165,0.0,0.0,57,0.00,,,0.00,WSDL version 423,2013-05-31 21:03:00,
2013-05-31 16:04:00,85.2,68.0,29.88,SSE,163,0.0,0.0,56,0.00,,,0.00,WSDL version 423,2013-05-31 21:04:00,
2013-05-31 16:05:00,85.2,67.9,29.88,SSE,158,0.0,0.0,55,0.00,,,0.00,WSDL version 423,2013-05-31 21:05:00,
2013-05-31 16:07:00,85.0,67.3,29.88,SSE,165,0.0,0.0,55,0.00,,,0.00,WSDL version 423,2013-05-31 21:07:00,
2013-05-31 16:09:00,84.9,67.2,29.88,NE,56,0.0,0.0,56,0.00,,,0.00,WSDL version 423,2013-05-31 21:09:00,
2013-05-31 16:11:00,84.7,67.4,29.88,ESE,121,0.0,0.0,57,0.00,,,0.00,WSDL version 423,2013-05-31 21:11:00,
2013-05-31 16:12:00,84.5,67.5,29.88,ESE,122,0.0,0.0,57,0.00,,,0.00,WSDL version 423,2013-05-31 21:12:00,
2013-05-31 16:17:00,84.1,67.4,29.85,South,170,0.0,0.0,58,0.00,,,0.00,WSDL version 423,2013-05-31 21:17:00,
2013-05-31 16:20:00,84.1,67.7,29.85,SSW,200,0.0,0.0,58,0.00,,,0.00,WSDL version 423,2013-05-31 21:20:00,
2013-05-31 16:21:00,84.1,67.9,29.85,NW,323,0.0,0.0,59,0.00,,,0.00,WSDL version 423,2013-05-31 21:21:00,
2013-05-31 16:22:00,84.2,68.0,29.85,South,183,0.0,0.0,59,0.00,,,0.00,WSDL version 423,2013-05-31 21:22:00,
2013-05-31 16:25:00,84.1,68.1,29.85,ESE,103,0.0,0.0,59,0.00,,,0.00,WSDL version 423,2013-05-31 21:25:00,
2013-05-31 16:26:00,84.0,68.1,29.85,ESE,122,0.0,0.0,59,0.00,,,0.00,WSDL version 423,2013-05-31 21:26:00,
2013-05-31 16:27:00,83.9,68.0,29.85,ESE,119,0.0,0.0,59,0.00,,,0.00,WSDL version 423,2013-05-31 21:27:00,
2013-05-31 16:31:00,83.7,68.0,29.85,East,100,0.0,0.0,60,0.00,,,0.00,WSDL version 423,2013-05-31 21:31:00,
2013-05-31 16:35:00,83.7,68.1,29.85,SE,145,0.0,0.0,59,0.00,,,0.00,WSDL version 423,2013-05-31 21:35:00,
2013-05-31 16:36:00,83.7,68.1,29.85,ESE,118,0.0,0.0,60,0.00,,,0.00,WSDL version 423,2013-05-31 21:36:00,
2013-05-31 16:37:00,83.8,68.1,29.85,ESE,119,0.0,0.0,60,0.00,,,0.00,WSDL version 423,2013-05-31 21:37:00,
2013-05-31 16:38:00,83.9,68.3,29.85,ESE,116,0.0,0.0,61,0.00,,,0.00,WSDL version 423,2013-05-31 21:38:00,
2013-05-31 16:39:00,83.9,68.4,29.85,East,90,0.0,0.0,60,0.00,,,0.00,WSDL version 423,2013-05-31 21:39:00,
2013-05-31 16:41:00,84.0,68.6,29.85,ESE,105,0.0,0.0,60,0.00,,,0.00,WSDL version 423,2013-05-31 21:41:00,
2013-05-31 16:45:00,84.0,68.5,29.85,ESE,121,0.0,0.0,60,0.00,,,0.00,WSDL version 423,2013-05-31 21:45:00,
2013-05-31 16:46:00,84.1,68.6,29.85,SE,138,0.0,0.0,61,0.00,,,0.00,WSDL version 423,2013-05-31 21:46:00,
2013-05-31 16:47:00,84.1,68.8,29.85,ESE,122,0.0,0.0,61,0.00,,,0.00,WSDL version 423,2013-05-31 21:47:00,
2013-05-31 16:48:00,84.1,68.9,29.85,SE,143,0.0,0.0,61,0.00,,,0.00,WSDL version 423,2013-05-31 21:48:00,
2013-05-31 16:49:00,84.2,69.0,29.85,SE,140,0.0,0.0,61,0.00,,,0.00,WSDL version 423,2013-05-31 21:49:00,
2013-05-31 16:50:00,84.3,69.3,29.85,East,90,0.0,0.0,61,0.00,,,0.00,WSDL version 423,2013-05-31 21:50:00,
2013-05-31 16:52:00,84.3,69.2,29.85,ESE,107,0.0,0.0,60,0.00,,,0.00,WSDL version 423,2013-05-31 21:52:00,
2013-05-31 16:54:00,84.3,69.1,29.85,ESE,103,0.0,0.0,60,0.00,,,0.00,WSDL version 423,2013-05-31 21:54:00,
2013-05-31 16:57:00,84.2,68.7,29.85,ESE,121,0.0,0.0,60,0.00,,,0.00,WSDL version 423,2013-05-31 21:57:00,
2013-05-31 16:58:00,84.2,68.7,29.85,SSE,160,0.0,0.0,60,0.00,,,0.00,WSDL version 423,2013-05-31 21:58:00,
2013-05-31 16:59:00,84.2,68.8,29.85,NE,53,0.0,0.0,61,0.00,,,0.00,WSDL version 423,2013-05-31 21:59:00,
2013-05-31 17:01:00,84.3,69.0,29.85,East,93,0.0,0.0,61,0.00,,,0.00,WSDL version 423,2013-05-31 22:01:00,
2013-05-31 17:03:00,84.2,69.0,29.85,ENE,59,0.0,0.0,60,0.00,,,0.00,WSDL version 423,2013-05-31 22:03:00,
2013-05-31 17:06:00,84.2,68.9,29.85,SSE,155,0.0,0.0,61,0.00,,,0.00,WSDL version 423,2013-05-31 22:06:00,
2013-05-31 17:07:00,84.3,69.1,29.85,SE,146,0.0,0.0,61,0.00,,,0.00,WSDL version 423,2013-05-31 22:07:00,
2013-05-31 17:08:00,84.4,69.2,29.85,East,96,0.0,0.0,61,0.00,,,0.00,WSDL version 423,2013-05-31 22:08:00,
2013-05-31 17:11:00,84.5,69.4,29.85,ESE,121,0.0,0.0,61,0.00,,,0.00,WSDL version 423,2013-05-31 22:11:00,
2013-05-31 17:13:00,84.6,69.5,29.85,SSE,168,0.0,0.0,61,-99.99,,,-99.99,WSDL version 423,2013-05-31 22:13:00,
2013-05-31 17:15:00,84.6,69.5,29.85,ESE,115,0.0,0.0,61,-99.99,,,-99.99,WSDL version 423,2013-05-31 22:15:00,
2013-05-31 17:16:00,84.6,69.5,29.83,SE,130,0.0,0.0,61,-99.99,,,-99.99,WSDL version 423,2013-05-31 22:16:00,
2013-05-31 17:17:00,84.5,69.4,29.83,East,98,0.0,0.0,61,-99.99,,,-99.99,WSDL version 423,2013-05-31 22:17:00,
2013-05-31 17:18:00,84.5,69.4,29.83,ESE,113,0.0,0.0,61,-99.99,,,-99.99,WSDL version 423,2013-05-31 22:18:00,
2013-05-31 17:20:00,84.5,69.4,29.83,East,100,0.0,0.0,61,-99.99,,,-99.99,WSDL version 423,2013-05-31 22:20:00,
2013-05-31 17:21:00,84.5,69.4,29.83,East,95,0.0,0.0,61,-99.99,,,-99.99,WSDL version 423,2013-05-31 22:21:00,
2013-05-31 17:23:00,84.5,69.4,29.83,SSE,149,0.0,0.0,61,-99.99,,,-99.99,WSDL version 423,2013-05-31 22:23:00,
2013-05-31 17:24:00,84.5,69.5,29.83,North,3,0.0,0.0,62,-99.99,,,-99.99,WSDL version 423,2013-05-31 22:24:00,
2013-05-31 17:28:00,84.5,69.8,29.83,ESE,115,0.0,0.0,62,-99.99,,,-99.99,WSDL version 423,2013-05-31 22:28:00,
2013-05-31 17:29:00,84.5,69.9,29.83,South,169,0.0,0.0,62,-99.99,,,-99.99,WSDL version 423,2013-05-31 22:29:00,
2013-05-31 17:30:00,84.6,69.9,29.83,South,174,0.0,0.0,62,-99.99,,,-99.99,WSDL version 423,2013-05-31 22:30:00,
2013-05-31 17:33:00,84.7,69.8,29.83,ESE,107,0.0,0.0,60,-99.99,,,-99.99,WSDL version 423,2013-05-31 22:33:00,
2013-05-31 17:35:00,84.6,69.3,29.83,SE,130,0.0,0.0,60,-99.99,,,-99.99,WSDL version 423,2013-05-31 22:35:00,
2013-05-31 17:37:00,84.5,68.9,29.83,ENE,78,0.0,0.0,60,-99.99,,,-99.99,WSDL version 423,2013-05-31 22:37:00,
2013-05-31 17:38:00,84.4,68.9,29.83,East,88,0.0,0.0,60,-99.99,,,-99.99,WSDL version 423,2013-05-31 22:38:00,
2013-05-31 17:43:00,84.3,69.1,29.83,ESE,109,0.0,0.0,61,-99.99,,,-99.99,WSDL version 423,2013-05-31 22:43:00,
2013-05-31 17:44:00,84.3,69.2,29.83,SE,129,0.0,0.0,61,-99.99,,,-99.99,WSDL version 423,2013-05-31 22:44:00,
2013-05-31 17:47:00,84.4,69.3,29.83,ESE,115,0.0,0.0,61,-99.99,,,-99.99,WSDL version 423,2013-05-31 22:47:00,
2013-05-31 17:48:00,84.4,69.3,29.83,SE,132,0.0,0.0,61,-99.99,,,-99.99,WSDL version 423,2013-05-31 22:48:00,
2013-05-31 17:50:00,84.3,69.5,29.83,ESE,118,0.0,0.0,62,-99.99,,,-99.99,WSDL version 423,2013-05-31 22:50:00,
2013-05-31 17:52:00,84.2,69.4,29.83,SE,140,0.0,0.0,61,-99.99,,,-99.99,WSDL version 423,2013-05-31 22:52:00,
2013-05-31 17:53:00,84.1,69.3,29.83,SSE,155,0.0,0.0,61,-99.99,,,-99.99,WSDL version 423,2013-05-31 22:53:00,
2013-05-31 17:54:00,84.1,69.2,29.83,ESE,104,0.0,0.0,61,-99.99,,,-99.99,WSDL version 423,2013-05-31 22:54:00,
2013-05-31 17:58:00,84.2,69.2,29.83,SSE,158,0.0,0.0,62,-99.99,,,-99.99,WSDL version 423,2013-05-31 22:58:00,
2013-05-31 17:59:00,84.2,69.3,29.83,SE,138,0.0,0.0,62,-99.99,,,-99.99,WSDL version 423,2013-05-31 22:59:00,
2013-05-31 18:01:00,84.3,69.5,29.83,South,174,0.0,0.0,61,-99.99,,,-99.99,WSDL version 423,2013-05-31 23:01:00,
2013-05-31 18:02:00,84.4,69.6,29.83,SSE,148,0.0,0.0,62,-99.99,,,-99.99,WSDL version 423,2013-05-31 23:02:00,
2013-05-31 18:04:00,84.5,69.5,29.83,East,90,0.0,0.0,61,-99.99,,,-99.99,WSDL version 423,2013-05-31 23:04:00,
2013-05-31 18:06:00,84.5,69.5,29.83,SSE,149,0.0,0.0,61,-99.99,,,-99.99,WSDL version 423,2013-05-31 23:06:00,
2013-05-31 18:07:00,84.6,69.5,29.83,SE,141,0.0,0.0,61,-99.99,,,-99.99,WSDL version 423,2013-05-31 23:07:00,
2013-05-31 18:08:00,84.6,69.6,29.83,SE,125,0.0,0.0,62,-99.99,,,-99.99,WSDL version 423,2013-05-31 23:08:00,
2013-05-31 18:09:00,84.6,69.6,29.83,ESE,110,0.0,0.0,61,-99.99,,,-99.99,WSDL version 423,2013-05-31 23:09:00,
2013-05-31 18:10:00,84.7,69.7,29.83,ESE,110,0.0,0.0,61,-99.99,,,-99.99,WSDL version 423,2013-05-31 23:10:00,
2013-05-31 18:12:00,84.7,69.7,29.83,ESE,108,0.0,0.0,61,-99.99,,,-99.99,WSDL version 423,2013-05-31 23:12:00,
2013-05-31 18:15:00,84.6,69.4,29.83,East,84,0.0,0.0,60,-99.99,,,-99.99,WSDL version 423,2013-05-31 23:15:00,
2013-05-31 18:16:00,84.5,69.3,29.83,East,93,0.0,0.0,61,-99.99,,,-99.99,WSDL version 423,2013-05-31 23:16:00,
2013-05-31 18:18:00,84.4,69.2,29.83,East,82,0.0,0.0,61,-99.99,,,-99.99,WSDL version 423,2013-05-31 23:18:00,
2013-05-31 18:19:00,84.4,69.2,29.83,East,90,0.0,0.0,61,-99.99,,,-99.99,WSDL version 423,2013-05-31 23:19:00,
2013-05-31 18:21:00,84.4,69.3,29.83,SSE,154,0.0,0.0,61,-99.99,,,-99.99,WSDL version 423,2013-05-31 23:21:00,
2013-05-31 18:23:00,84.5,69.3,29.83,ESE,118,0.0,0.0,60,-99.99,,,-99.99,WSDL version 423,2013-05-31 23:23:00,
2013-05-31 18:24:00,84.5,69.3,29.83,ESE,113,0.0,0.0,61,-99.99,,,-99.99,WSDL version 423,2013-05-31 23:24:00,
2013-05-31 18:26:00,84.4,69.1,29.83,East,96,0.0,0.0,60,-99.99,,,-99.99,WSDL version 423,2013-05-31 23:26:00,
2013-05-31 18:27:00,84.3,69.1,29.83,ENE,68,0.0,0.0,61,-99.99,,,-99.99,WSDL version 423,2013-05-31 23:27:00,
2013-05-31 18:31:00,84.1,69.0,29.80,SSE,158,0.0,0.0,61,-99.99,,,-99.99,WSDL version 423,2013-05-31 23:31:00,
2013-05-31 18:32:00,84.0,69.0,29.80,WNW,300,0.0,0.0,62,-99.99,,,-99.99,WSDL version 423,2013-05-31 23:32:00,
2013-05-31 18:35:00,83.9,69.2,29.80,East,79,0.0,0.0,62,-99.99,,,-99.99,WSDL version 423,2013-05-31 23:35:00,
2013-05-31 18:38:00,83.8,69.4,29.80,ESE,113,0.0,0.0,62,-99.99,,,-99.99,WSDL version 423,2013-05-31 23:38:00,
2013-05-31 18:39:00,83.8,69.5,29.80,ESE,122,0.0,0.0,62,-99.99,,,-99.99,WSDL version 423,2013-05-31 23:39:00,
2013-05-31 18:40:00,83.9,69.6,29.80,ESE,115,0.0,0.0,62,-99.99,,,-99.99,WSDL version 423,2013-05-31 23:40:00,
2013-05-31 18:41:00,83.9,69.7,29.80,East,93,0.0,0.0,62,-99.99,,,-99.99,WSDL version 423,2013-05-31 23:41:00,
2013-05-31 18:44:00,84.0,69.7,29.80,ENE,73,0.0,0.0,62,-99.99,,,-99.99,WSDL version 423,2013-05-31 23:44:00,
2013-05-31 18:46:00,83.9,69.6,29.83,ESE,107,0.0,0.0,62,-99.99,,,-99.99,WSDL version 423,2013-05-31 23:46:00,
2013-05-31 18:47:00,83.9,69.5,29.83,East,79,0.0,0.0,62,-99.99,,,-99.99,WSDL version 423,2013-05-31 23:47:00,
2013-05-31 18:51:00,83.8,69.2,29.83,East,93,0.0,0.0,62,-99.99,,,-99.99,WSDL version 423,2013-05-31 23:51:00,
2013-05-31 18:52:00,83.8,69.2,29.83,ENE,68,0.0,0.0,62,-99.99,,,-99.99,WSDL version 423,2013-05-31 23:52:00,
2013-05-31 18:53:00,83.7,69.1,29.83,East,96,0.0,0.0,62,-99.99,,,-99.99,WSDL version 423,2013-05-31 23:53:00,
2013-05-31 18:57:00,83.6,69.0,29.83,SE,127,0.0,0.0,62,-99.99,,,-99.99,WSDL version 423,2013-05-31 23:57:00,
2013-05-31 18:59:00,83.5,68.9,29.83,ESE,104,0.0,0.0,62,-99.99,,,-99.99,WSDL version 423,2013-05-31 23:59:00,
2013-05-31 19:03:00,83.4,68.8,29.80,East,93,0.0,0.0,62,-99.99,,,-99.99,WSDL version 423,2013-06-01 00:03:00,
2013-05-31 19:04:00,83.4,68.8,29.80,East,93,0.0,0.0,62,-99.99,,,-99.99,WSDL version 423,2013-06-01 00:04:00,
2013-05-31 19:05:00,83.4,68.8,29.80,ESE,103,0.0,0.0,62,-99.99,,,-99.99,WSDL version 423,2013-06-01 00:05:00,
2013-05-31 19:10:00,83.1,68.7,29.80,East,93,0.0,0.0,62,-99.99,,,-99.99,WSDL version 423,2013-06-01 00:10:00,
2013-05-31 19:11:00,83.0,68.8,29.80,NNW,338,0.0,0.0,63,-99.99,,,-99.99,WSDL version 423,2013-06-01 00:11:00,
2013-05-31 19:14:00,82.8,68.9,29.80,East,90,0.0,0.0,63,-99.99,,,-99.99,WSDL version 423,2013-06-01 00:14:00,
2013-05-31 19:16:00,82.8,68.9,29.83,SE,127,0.0,0.0,63,-99.99,,,-99.99,WSDL version 423,2013-06-01 00:16:00,
2013-05-31 19:17:00,82.7,69.0,29.83,ESE,113,0.0,0.0,63,-99.99,,,-99.99,WSDL version 423,2013-06-01 00:17:00,
2013-05-31 19:18:00,82.7,69.0,29.83,East,96,0.0,0.0,63,-99.99,,,-99.99,WSDL version 423,2013-06-01 00:18:00,
2013-05-31 19:21:00,82.6,69.1,29.83,East,98,0.0,0.0,64,-99.99,,,-99.99,WSDL version 423,2013-06-01 00:21:00,
2013-05-31 19:22:00,82.6,69.1,29.83,East,98,0.0,0.0,64,-99.99,,,-99.99,WSDL version 423,2013-06-01 00:22:00,
2013-05-31 19:23:00,82.6,69.2,29.83,East,98,0.0,0.0,64,-99.99,,,-99.99,WSDL version 423,2013-06-01 00:23:00,
2013-05-31 19:24:00,82.6,69.3,29.83,ESE,113,0.0,0.0,64,-99.99,,,-99.99,WSDL version 423,2013-06-01 00:24:00,
2013-05-31 19:26:00,82.6,69.5,29.83,ESE,115,0.0,0.0,65,-99.99,,,-99.99,WSDL version 423,2013-06-01 00:26:00,
2013-05-31 19:29:00,82.5,69.7,29.83,East,98,0.0,0.0,65,-99.99,,,-99.99,WSDL version 423,2013-06-01 00:29:00,
2013-05-31 19:31:00,82.5,69.6,29.80,SSE,160,0.0,0.0,65,-99.99,,,-99.99,WSDL version 423,2013-06-01 00:31:00,
2013-05-31 19:32:00,82.4,69.6,29.80,SE,135,0.0,0.0,65,-99.99,,,-99.99,WSDL version 423,2013-06-01 00:32:00,
2013-05-31 19:34:00,82.4,69.7,29.80,East,93,0.0,0.0,66,-99.99,,,-99.99,WSDL version 423,2013-06-01 00:34:00,
2013-05-31 19:35:00,82.4,69.8,29.80,East,86,0.0,0.0,66,-99.99,,,-99.99,WSDL version 423,2013-06-01 00:35:00,
2013-05-31 19:37:00,82.3,69.8,29.80,East,98,0.0,0.0,66,-99.99,,,-99.99,WSDL version 423,2013-06-01 00:37:00,
2013-05-31 19:38:00,82.3,69.8,29.80,East,90,0.0,0.0,66,-99.99,,,-99.99,WSDL version 423,2013-06-01 00:38:00,
2013-05-31 19:40:00,82.2,69.8,29.80,East,90,0.0,0.0,66,-99.99,,,-99.99,WSDL version 423,2013-06-01 00:40:00,
2013-05-31 19:43:00,82.2,69.8,29.80,SE,125,0.0,0.0,66,-99.99,,,-99.99,WSDL version 423,2013-06-01 00:43:00,
2013-05-31 19:47:00,82.2,70.1,29.80,East,93,0.0,0.0,67,-99.99,,,-99.99,WSDL version 423,2013-06-01 00:47:00,
2013-05-31 19:48:00,82.2,70.2,29.80,ESE,113,0.0,0.0,67,-99.99,,,-99.99,WSDL version 423,2013-06-01 00:48:00,
2013-05-31 19:52:00,82.1,70.0,29.80,East,93,0.0,0.0,67,-99.99,,,-99.99,WSDL version 423,2013-06-01 00:52:00,
2013-05-31 19:53:00,82.0,70.0,29.80,ESE,104,0.0,0.0,67,-99.99,,,-99.99,WSDL version 423,2013-06-01 00:53:00,
2013-05-31 19:54:00,81.9,69.9,29.80,East,98,0.0,0.0,67,-99.99,,,-99.99,WSDL version 423,2013-06-01 00:54:00,
2013-05-31 19:56:00,81.9,69.8,29.80,ESE,110,0.0,0.0,67,-99.99,,,-99.99,WSDL version 423,2013-06-01 00:56:00,
2013-05-31 19:59:00,81.8,69.8,29.80,ESE,104,0.0,0.0,67,-99.99,,,-99.99,WSDL version 423,2013-06-01 00:59:00,
2013-05-31 20:00:00,81.7,69.8,29.80,ENE,73,0.0,0.0,68,-99.99,,,-99.99,WSDL version 423,2013-06-01 01:00:00,
2013-05-31 20:02:00,81.7,69.8,29.80,ESE,113,0.0,0.0,67,-99.99,,,-99.99,WSDL version 423,2013-06-01 01:02:00,
2013-05-31 20:05:00,81.6,69.9,29.80,East,95,0.0,0.0,68,-99.99,,,-99.99,WSDL version 423,2013-06-01 01:05:00,
2013-05-31 20:06:00,81.6,69.9,29.80,East,84,0.0,0.0,68,-99.99,,,-99.99,WSDL version 423,2013-06-01 01:06:00,
2013-05-31 20:08:00,81.5,69.9,29.80,ESE,105,0.0,0.0,68,-99.99,,,-99.99,WSDL version 423,2013-06-01 01:08:00,
2013-05-31 20:12:00,81.5,69.9,29.80,SSE,153,0.0,0.0,68,-99.99,,,-99.99,WSDL version 423,2013-06-01 01:12:00,
2013-05-31 20:13:00,81.5,69.9,29.80,SE,129,0.0,0.0,68,-99.99,,,-99.99,WSDL version 423,2013-06-01 01:13:00,
2013-05-31 20:17:00,81.5,69.8,29.80,East,90,0.0,0.0,68,-99.99,,,-99.99,WSDL version 423,2013-06-01 01:17:00,
2013-05-31 20:19:00,81.4,69.8,29.80,ESE,115,0.0,0.0,68,-99.99,,,-99.99,WSDL version 423,2013-06-01 01:19:00,
2013-05-31 20:20:00,81.3,69.7,29.80,NE,34,0.0,0.0,68,-99.99,,,-99.99,WSDL version 423,2013-06-01 01:20:00,
2013-05-31 20:22:00,81.2,69.8,29.80,ENE,63,0.0,0.0,69,-99.99,,,-99.99,WSDL version 423,2013-06-01 01:22:00,
2013-05-31 20:23:00,81.2,69.8,29.80,East,79,0.0,0.0,69,-99.99,,,-99.99,WSDL version 423,2013-06-01 01:23:00,
2013-05-31 20:24:00,81.2,69.8,29.80,East,84,0.0,0.0,69,-99.99,,,-99.99,WSDL version 423,2013-06-01 01:24:00,
2013-05-31 20:26:00,81.1,69.9,29.80,ESE,113,0.0,0.0,69,-99.99,,,-99.99,WSDL version 423,2013-06-01 01:26:00,
2013-05-31 20:27:00,81.1,69.9,29.80,ESE,116,0.0,0.0,69,-99.99,,,-99.99,WSDL version 423,2013-06-01 01:27:00,
2013-05-31 20:29:00,81.1,69.9,29.80,East,83,0.0,0.0,69,-99.99,,,-99.99,WSDL version 423,2013-06-01 01:29:00,
2013-05-31 20:33:00,81.1,69.9,29.80,ESE,118,0.0,0.0,69,-99.99,,,-99.99,WSDL version 423,2013-06-01 01:33:00,
2013-05-31 20:36:00,81.1,69.9,29.80,ENE,59,0.0,0.0,69,-99.99,,,-99.99,WSDL version 423,2013-06-01 01:36:00,
2013-05-31 20:39:00,81.0,69.9,29.80,South,190,0.0,0.0,69,-99.99,,,-99.99,WSDL version 423,2013-06-01 01:39:00,
2013-05-31 20:40:00,80.9,69.9,29.80,WSW,240,0.0,0.0,69,-99.99,,,-99.99,WSDL version 423,2013-06-01 01:40:00,
2013-05-31 20:42:00,80.9,69.8,29.80,SE,124,0.0,0.0,70,-99.99,,,-99.99,WSDL version 423,2013-06-01 01:42:00,
2013-05-31 20:45:00,80.9,70.0,29.80,ENE,68,0.0,0.0,70,-99.99,,,-99.99,WSDL version 423,2013-06-01 01:45:00,
2013-05-31 20:48:00,80.8,70.0,29.80,ESE,104,0.0,0.0,70,-99.99,,,-99.99,WSDL version 423,2013-06-01 01:48:00,
2013-05-31 20:51:00,80.8,70.0,29.80,ESE,103,0.0,0.0,70,-99.99,,,-99.99,WSDL version 423,2013-06-01 01:51:00,
2013-05-31 20:54:00,80.8,70.0,29.80,ESE,103,0.0,0.0,70,-99.99,,,-99.99,WSDL version 423,2013-06-01 01:54:00,
2013-05-31 20:55:00,80.8,70.0,29.80,East,100,0.0,0.0,70,-99.99,,,-99.99,WSDL version 423,2013-06-01 01:55:00,
2013-05-31 20:56:00,80.8,70.0,29.80,East,80,0.0,0.0,70,-99.99,,,-99.99,WSDL version 423,2013-06-01 01:56:00,
2013-05-31 20:59:00,80.8,70.2,29.80,ENE,59,0.0,0.0,71,-99.99,,,-99.99,WSDL version 423,2013-06-01 01:59:00,
2013-05-31 21:00:00,80.7,70.2,29.80,East,85,0.0,0.0,71,-99.99,,,-99.99,WSDL version 423,2013-06-01 02:00:00,
2013-05-31 21:01:00,80.7,70.3,29.80,ESE,110,0.0,0.0,71,-99.99,,,-99.99,WSDL version 423,2013-06-01 02:01:00,
2013-05-31 21:02:00,80.7,70.3,29.80,ESE,103,0.0,0.0,71,-99.99,,,-99.99,WSDL version 423,2013-06-01 02:02:00,
2013-05-31 21:05:00,80.7,70.3,29.80,ENE,78,0.0,0.0,71,-99.99,,,-99.99,WSDL version 423,2013-06-01 02:05:00,
2013-05-31 21:06:00,80.7,70.2,29.80,East,90,0.0,0.0,71,-99.99,,,-99.99,WSDL version 423,2013-06-01 02:06:00,
2013-05-31 21:07:00,80.6,70.2,29.80,East,88,0.0,0.0,71,-99.99,,,-99.99,WSDL version 423,2013-06-01 02:07:00,
2013-05-31 21:09:00,80.6,70.2,29.80,East,82,0.0,0.0,71,-99.99,,,-99.99,WSDL version 423,2013-06-01 02:09:00,
2013-05-31 21:10:00,80.6,70.2,29.80,East,87,0.0,0.0,71,-99.99,,,-99.99,WSDL version 423,2013-06-01 02:10:00,
2013-05-31 21:11:00,80.6,70.2,29.80,East,88,0.0,0.0,71,-99.99,,,-99.99,WSDL version 423,2013-06-01 02:11:00,
2013-05-31 21:14:00,80.6,70.2,29.80,ENE,70,0.0,0.0,71,-99.99,,,-99.99,WSDL version 423,2013-06-01 02:14:00,
2013-05-31 21:15:00,80.6,70.2,29.80,East,85,0.0,0.0,71,-99.99,,,-99.99,WSDL version 423,2013-06-01 02:15:00,
2013-05-31 21:16:00,80.6,70.2,29.80,East,98,0.0,0.0,72,-99.99,,,-99.99,WSDL version 423,2013-06-01 02:16:00,
2013-05-31 21:18:00,80.6,70.4,29.80,East,98,0.0,0.0,72,-99.99,,,-99.99,WSDL version 423,2013-06-01 02:18:00,
2013-05-31 21:19:00,80.6,70.4,29.80,East,80,0.0,0.0,72,-99.99,,,-99.99,WSDL version 423,2013-06-01 02:19:00,
2013-05-31 21:22:00,80.5,70.5,29.80,ESE,123,0.0,0.0,72,-99.99,,,-99.99,WSDL version 423,2013-06-01 02:22:00,
2013-05-31 21:23:00,80.5,70.4,29.80,ESE,122,0.0,0.0,72,-99.99,,,-99.99,WSDL version 423,2013-06-01 02:23:00,
2013-05-31 21:24:00,80.4,70.4,29.80,East,100,0.0,0.0,72,-99.99,,,-99.99,WSDL version 423,2013-06-01 02:24:00,
2013-05-31 21:27:00,80.4,70.4,29.80,East,90,0.0,0.0,72,-99.99,,,-99.99,WSDL version 423,2013-06-01 02:27:00,
2013-05-31 21:28:00,80.4,70.4,29.80,ENE,73,0.0,0.0,72,-99.99,,,-99.99,WSDL version 423,2013-06-01 02:28:00,
2013-05-31 21:29:00,80.4,70.4,29.80,East,84,0.0,0.0,72,-99.99,,,-99.99,WSDL version 423,2013-06-01 02:29:00,
2013-05-31 21:34:00,80.5,70.5,29.80,ESE,113,0.0,0.0,72,-99.99,,,-99.99,WSDL version 423,2013-06-01 02:34:00,
2013-05-31 21:36:00,80.6,70.5,29.80,East,90,0.0,0.0,72,-99.99,,,-99.99,WSDL version 423,2013-06-01 02:36:00,
2013-05-31 21:37:00,80.6,70.5,29.80,ESE,115,0.0,0.0,72,-99.99,,,-99.99,WSDL version 423,2013-06-01 02:37:00,
2013-05-31 21:41:00,80.6,70.5,29.80,ESE,104,0.0,0.0,72,-99.99,,,-99.99,WSDL version 423,2013-06-01 02:41:00,
2013-05-31 21:42:00,80.6,70.5,29.80,SSE,148,0.0,0.0,72,-99.99,,,-99.99,WSDL version 423,2013-06-01 02:42:00,
2013-05-31 21:43:00,80.5,70.5,29.80,SE,140,0.0,0.0,72,-99.99,,,-99.99,WSDL version 423,2013-06-01 02:43:00,
2013-05-31 21:44:00,80.5,70.4,29.80,East,82,0.0,0.0,72,-99.99,,,-99.99,WSDL version 423,2013-06-01 02:44:00,
2013-05-31 21:47:00,80.4,70.4,29.83,ESE,121,0.0,0.0,72,-99.99,,,-99.99,WSDL version 423,2013-06-01 02:47:00,
2013-05-31 21:48:00,80.4,70.4,29.83,SE,145,0.0,0.0,72,-99.99,,,-99.99,WSDL version 423,2013-06-01 02:48:00,
2013-05-31 21:51:00,80.4,70.4,29.83,ESE,113,0.0,0.0,72,-99.99,,,-99.99,WSDL version 423,2013-06-01 02:51:00,
2013-05-31 21:53:00,80.4,70.4,29.83,ESE,108,0.0,0.0,72,-99.99,,,-99.99,WSDL version 423,2013-06-01 02:53:00,
2013-05-31 21:54:00,80.5,70.4,29.83,SSE,152,0.0,0.0,72,-99.99,,,-99.99,WSDL version 423,2013-06-01 02:54:00,
2013-05-31 21:57:00,80.6,70.5,29.83,SE,127,0.0,0.0,72,-99.99,,,-99.99,WSDL version 423,2013-06-01 02:57:00,
2013-05-31 21:59:00,80.6,70.5,29.83,East,93,0.0,0.0,72,-99.99,,,-99.99,WSDL version 423,2013-06-01 02:59:00,
2013-05-31 22:00:00,80.6,70.5,29.83,SE,132,0.0,0.0,72,-99.99,,,-99.99,WSDL version 423,2013-06-01 03:00:00,
2013-05-31 22:01:00,80.6,70.5,29.83,East,82,0.0,0.0,72,-99.99,,,-99.99,WSDL version 423,2013-06-01 03:01:00,
2013-05-31 22:03:00,80.6,70.5,29.83,East,85,0.0,0.0,72,-99.99,,,-99.99,WSDL version 423,2013-06-01 03:03:00,
2013-05-31 22:05:00,80.6,70.5,29.83,NE,53,0.0,0.0,72,-99.99,,,-99.99,WSDL version 423,2013-06-01 03:05:00,
2013-05-31 22:07:00,80.5,70.5,29.83,ENE,75,0.0,0.0,72,-99.99,,,-99.99,WSDL version 423,2013-06-01 03:07:00,
2013-05-31 22:08:00,80.5,70.4,29.83,East,83,0.0,0.0,72,-99.99,,,-99.99,WSDL version 423,2013-06-01 03:08:00,
2013-05-31 22:10:00,80.4,70.4,29.83,East,98,0.0,0.0,72,-99.99,,,-99.99,WSDL version 423,2013-06-01 03:10:00,
2013-05-31 22:12:00,80.4,70.4,29.83,East,96,0.0,0.0,72,-99.99,,,-99.99,WSDL version 423,2013-06-01 03:12:00,
2013-05-31 22:14:00,80.4,70.4,29.83,ESE,103,0.0,0.0,72,-99.99,,,-99.99,WSDL version 423,2013-06-01 03:14:00,
2013-05-31 22:17:00,80.4,70.4,29.83,ESE,118,0.0,0.0,72,-99.99,,,-99.99,WSDL version 423,2013-06-01 03:17:00,
2013-05-31 22:18:00,80.4,70.4,29.83,SE,138,0.0,0.0,72,-99.99,,,-99.99,WSDL version 423,2013-06-01 03:18:00,
2013-05-31 22:19:00,80.4,70.4,29.83,ESE,115,0.0,0.0,72,-99.99,,,-99.99,WSDL version 423,2013-06-01 03:19:00,
2013-05-31 22:21:00,80.3,70.3,29.83,SE,132,0.0,0.0,72,-99.99,,,-99.99,WSDL version 423,2013-06-01 03:21:00,
2013-05-31 22:23:00,80.3,70.2,29.83,ESE,104,0.0,0.0,72,-99.99,,,-99.99,WSDL version 423,2013-06-01 03:23:00,
2013-05-31 22:26:00,80.2,70.2,29.83,East,101,0.0,0.0,72,-99.99,,,-99.99,WSDL version 423,2013-06-01 03:26:00,
2013-05-31 22:27:00,80.2,70.2,29.83,East,79,0.0,0.0,72,-99.99,,,-99.99,WSDL version 423,2013-06-01 03:27:00,
2013-05-31 22:28:00,80.2,70.2,29.83,SE,130,0.0,0.0,72,-99.99,,,-99.99,WSDL version 423,2013-06-01 03:28:00,
2013-05-31 22:29:00,80.2,70.2,29.83,SSE,163,0.0,0.0,72,-99.99,,,-99.99,WSDL version 423,2013-06-01 03:29:00,
2013-05-31 22:33:00,80.1,70.1,29.85,ESE,122,0.0,0.0,72,-99.99,,,-99.99,WSDL version 423,2013-06-01 03:33:00,
2013-05-31 22:35:00,80.1,70.1,29.85,SE,133,0.0,0.0,72,-99.99,,,-99.99,WSDL version 423,2013-06-01 03:35:00,
2013-05-31 22:36:00,80.0,70.0,29.85,ESE,115,0.0,0.0,72,-99.99,,,-99.99,WSDL version 423,2013-06-01 03:36:00,
2013-05-31 22:41:00,80.0,70.0,29.85,West,281,0.0,0.0,72,-99.99,,,-99.99,WSDL version 423,2013-06-01 03:41:00,
2013-05-31 22:42:00,80.0,70.0,29.85,ESE,115,0.0,0.0,72,-99.99,,,-99.99,WSDL version 423,2013-06-01 03:42:00,
2013-05-31 22:45:00,80.0,70.0,29.85,East,98,0.0,0.0,72,-99.99,,,-99.99,WSDL version 423,2013-06-01 03:45:00,
2013-05-31 22:47:00,80.0,70.0,29.83,ESE,115,0.0,0.0,72,-99.99,,,-99.99,WSDL version 423,2013-06-01 03:47:00,
2013-05-31 22:48:00,80.0,70.0,29.83,ENE,76,0.0,0.0,72,-99.99,,,-99.99,WSDL version 423,2013-06-01 03:48:00,
2013-05-31 22:49:00,80.0,70.0,29.83,SE,125,0.0,0.0,72,-99.99,,,-99.99,WSDL version 423,2013-06-01 03:49:00,
2013-05-31 22:50:00,80.0,70.0,29.83,ESE,110,0.0,0.0,72,-99.99,,,-99.99,WSDL version 423,2013-06-01 03:50:00,
2013-05-31 22:53:00,80.0,70.1,29.83,East,83,0.0,0.0,72,-99.99,,,-99.99,WSDL version 423,2013-06-01 03:53:00,
2013-05-31 22:55:00,80.0,70.2,29.83,SSE,149,0.0,0.0,72,-99.99,,,-99.99,WSDL version 423,2013-06-01 03:55:00,
2013-05-31 22:59:00,79.9,70.1,29.83,ESE,108,0.0,0.0,72,-99.99,,,-99.99,WSDL version 423,2013-06-01 03:59:00,
2013-05-31 23:00:00,79.9,70.1,29.83,ESE,113,0.0,0.0,72,-99.99,,,-99.99,WSDL version 423,2013-06-01 04:00:00,
2013-05-31 23:01:00,79.9,70.2,29.83,SSE,155,0.0,0.0,72,-99.99,,,-99.99,WSDL version 423,2013-06-01 04:01:00,
2013-05-31 23:02:00,79.9,70.2,29.83,SE,129,0.0,0.0,72,-99.99,,,-99.99,WSDL version 423,2013-06-01 04:02:00,
2013-05-31 23:03:00,79.9,70.2,29.83,ESE,110,0.0,0.0,72,-99.99,,,-99.99,WSDL version 423,2013-06-01 04:03:00,
2013-05-31 23:07:00,79.8,70.1,29.83,ESE,123,0.0,0.0,72,-99.99,,,-99.99,WSDL version 423,2013-06-01 04:07:00,
2013-05-31 23:08:00,79.7,70.1,29.83,ESE,110,0.0,0.0,72,-99.99,,,-99.99,WSDL version 423,2013-06-01 04:08:00,
2013-05-31 23:10:00,79.7,70.1,29.83,ESE,110,0.0,0.0,72,-99.99,,,-99.99,WSDL version 423,2013-06-01 04:10:00,
2013-05-31 23:12:00,79.7,70.1,29.83,SSE,158,0.0,0.0,72,-99.99,,,-99.99,WSDL version 423,2013-06-01 04:12:00,
2013-05-31 23:13:00,79.7,70.1,29.83,East,95,0.0,0.0,72,-99.99,,,-99.99,WSDL version 423,2013-06-01 04:13:00,
2013-05-31 23:14:00,79.8,70.1,29.83,East,98,0.0,0.0,72,-99.99,,,-99.99,WSDL version 423,2013-06-01 04:14:00,
2013-05-31 23:15:00,79.8,70.2,29.83,East,87,0.0,0.0,72,-99.99,,,-99.99,WSDL version 423,2013-06-01 04:15:00,
2013-05-31 23:18:00,79.9,70.2,29.83,ESE,110,0.0,0.0,72,-99.99,,,-99.99,WSDL version 423,2013-06-01 04:18:00,
2013-05-31 23:20:00,79.9,70.2,29.83,East,90,0.0,0.0,72,-99.99,,,-99.99,WSDL version 423,2013-06-01 04:20:00,
2013-05-31 23:22:00,79.8,70.2,29.83,SE,125,0.0,0.0,72,-99.99,,,-99.99,WSDL version 423,2013-06-01 04:22:00,
2013-05-31 23:23:00,79.7,70.1,29.83,SE,129,0.0,0.0,72,-99.99,,,-99.99,WSDL version 423,2013-06-01 04:23:00,
2013-05-31 23:27:00,79.7,70.1,29.83,SE,146,0.0,0.0,72,-99.99,,,-99.99,WSDL version 423,2013-06-01 04:27:00,
2013-05-31 23:28:00,79.7,70.1,29.83,NNE,26,0.0,0.0,72,-99.99,,,-99.99,WSDL version 423,2013-06-01 04:28:00,
2013-05-31 23:29:00,79.8,70.1,29.83,ESE,122,0.0,0.0,72,-99.99,,,-99.99,WSDL version 423,2013-06-01 04:29:00,
2013-05-31 23:30:00,79.8,70.2,29.83,North,11,0.0,0.0,72,-99.99,,,-99.99,WSDL version 423,2013-06-01 04:30:00,
2013-05-31 23:33:00,79.9,70.2,29.80,SE,129,0.0,0.0,72,-99.99,,,-99.99,WSDL version 423,2013-06-01 04:33:00,
2013-05-31 23:34:00,79.8,70.2,29.80,NNE,33,0.0,0.0,72,-99.99,,,-99.99,WSDL version 423,2013-06-01 04:34:00,
2013-05-31 23:38:00,79.7,70.1,29.80,East,83,0.0,0.0,72,-99.99,,,-99.99,WSDL version 423,2013-06-01 04:38:00,
2013-05-31 23:41:00,79.7,70.1,29.80,SE,138,0.0,0.0,72,-99.99,,,-99.99,WSDL version 423,2013-06-01 04:41:00,
2013-05-31 23:42:00,79.7,70.1,29.80,WNW,295,0.0,0.0,72,-99.99,,,-99.99,WSDL version 423,2013-06-01 04:42:00,
2013-05-31 23:43:00,79.7,70.1,29.80,ESE,115,0.0,0.0,72,-99.99,,,-99.99,WSDL version 423,2013-06-01 04:43:00,
2013-05-31 23:44:00,79.7,70.1,29.80,ESE,110,0.0,0.0,72,-99.99,,,-99.99,WSDL version 423,2013-06-01 04:44:00,
2013-05-31 23:45:00,79.7,70.1,29.80,ESE,115,0.0,0.0,72,-99.99,,,-99.99,WSDL version 423,2013-06-01 04:45:00,
2013-05-31 23:49:00,79.7,70.1,29.83,SSE,155,0.0,0.0,72,-99.99,,,-99.99,WSDL version 423,2013-06-01 04:49:00,
2013-05-31 23:50:00,79.7,70.1,29.83,SSE,155,0.0,0.0,72,-99.99,,,-99.99,WSDL version 423,2013-06-01 04:50:00,
2013-05-31 23:51:00,79.7,70.1,29.83,SSE,163,0.0,0.0,72,-99.99,,,-99.99,WSDL version 423,2013-06-01 04:51:00,
2013-05-31 23:52:00,79.7,70.1,29.83,SSE,155,0.0,0.0,72,-99.99,,,-99.99,WSDL version 423,2013-06-01 04:52:00,
2013-05-31 23:55:00,79.7,70.1,29.83,SSE,150,0.0,0.0,72,-99.99,,,-99.99,WSDL version 423,2013-06-01 04:55:00,
2013-05-31 23:56:00,79.7,70.1,29.83,SSE,163,0.0,0.0,72,-99.99,,,-99.99,WSDL version 423,2013-06-01 04:56:00,
2013-05-31 23:58:00,79.7,70.1,29.83,North,6,0.0,0.0,72,-99.99,,,-99.99,WSDL version 423,2013-06-01 04:58:00,